| time (UTC) | temp C | wind direction | speed KPH | gust KPH | rain 1hr cm | rain 24hr cm | rain mn cm | humidity % | barometer mb |
| 20260504130805 | 18 | 184 | 8.0 | 22.5 | 0.00 | 0.00 | 0.00 | 77 | 1046.5 |
| 20260504130703 | 18 | 210 | 8.0 | 22.5 | 0.00 | 0.00 | 0.00 | 77 | 1046.4 |
| 20260504130608 | 18 | 151 | 8.0 | 22.5 | 0.00 | 0.00 | 0.00 | 76 | 1046.3 |
| 20260504130530 | 18 | 154 | 9.7 | 22.5 | 0.00 | 0.00 | 0.00 | 76 | 1046.3 |
| 20260504130524 | 18 | 198 | 9.7 | 22.5 | 0.00 | 0.00 | 0.00 | 76 | 1046.3 |
| 20260504130510 | 18 | 201 | 9.7 | 22.5 | 0.00 | 0.00 | 0.00 | 76 | 1046.3 |
| 20260504130451 | 18 | 170 | 9.7 | 22.5 | 0.00 | 0.00 | 0.00 | 76 | 1046.3 |
| 20260504120303 | 21 | 214 | 8.0 | 20.9 | 0.00 | 0.00 | 0.00 | 72 | 1046.3 |
| 20260504120203 | 21 | 225 | 8.0 | 20.9 | 0.00 | 0.00 | 0.00 | 71 | 1046.2 |
| 20260504120112 | 21 | 155 | 9.7 | 20.9 | 0.00 | 0.00 | 0.00 | 71 | 1046.3 |
| 20260504110653 | 20 | 199 | 6.4 | 19.3 | 0.00 | 0.00 | 0.00 | 72 | 1046.7 |
| 20260504110557 | 20 | 199 | 6.4 | 19.3 | 0.00 | 0.00 | 0.00 | 72 | 1046.6 |
| 20260504110458 | 20 | 201 | 6.4 | 19.3 | 0.00 | 0.00 | 0.00 | 72 | 1046.7 |
| 20260504110358 | 20 | 183 | 6.4 | 19.3 | 0.00 | 0.00 | 0.00 | 71 | 1046.6 |
| 20260504110255 | 20 | 185 | 6.4 | 19.3 | 0.00 | 0.00 | 0.00 | 71 | 1046.6 |
| 20260504110156 | 20 | 168 | 6.4 | 19.3 | 0.00 | 0.00 | 0.00 | 71 | 1046.7 |
| 20260504110103 | 20 | 100 | 4.8 | 14.5 | 0.00 | 0.00 | 0.00 | 70 | 1046.7 |
| 20260504100406 | 20 | 133 | 8.0 | 16.1 | 0.00 | 0.00 | 0.00 | 68 | 1046.9 |
| 20260504100357 | 20 | 131 | 8.0 | 16.1 | 0.00 | 0.00 | 0.00 | 69 | 1046.9 |
| 20260504100346 | 20 | 98 | 8.0 | 16.1 | 0.00 | 0.00 | 0.00 | 68 | 1046.9 |
| 20260504081939 | 18 | 39 | 3.2 | 6.4 | 0.00 | 0.00 | 0.00 | 73 | 1047.5 |
| 20260504081839 | 18 | 39 | 3.2 | 6.4 | 0.00 | 0.00 | 0.00 | 73 | 1047.5 |
| 20260504081739 | 18 | 39 | 3.2 | 6.4 | 0.00 | 0.00 | 0.00 | 72 | 1047.5 |
| 20260504081632 | 18 | 39 | 1.6 | 6.4 | 0.00 | 0.00 | 0.00 | 72 | 1047.6 |
| 20260504081537 | 18 | 39 | 1.6 | 6.4 | 0.00 | 0.00 | 0.00 | 72 | 1047.5 |
| 20260504081437 | 18 | 39 | 1.6 | 6.4 | 0.00 | 0.00 | 0.00 | 71 | 1047.5 |
| 20260504081426 | 18 | 39 | 1.6 | 6.4 | 0.00 | 0.00 | 0.00 | 71 | 1047.6 |
| 20260504081419 | 18 | 38 | 1.6 | 4.8 | 0.00 | 0.00 | 0.00 | 71 | 1047.5 |
| 20260504081348 | 18 | 38 | 1.6 | 4.8 | 0.00 | 0.00 | 0.00 | 71 | 1047.6 |
| 20260504081035 | 18 | 38 | 1.6 | 4.8 | 0.00 | 0.00 | 0.00 | 72 | 1047.6 |
| 20260504080937 | 18 | 38 | 1.6 | 3.2 | 0.00 | 0.00 | 0.00 | 72 | 1047.6 |
| 20260504080836 | 18 | 38 | 1.6 | 3.2 | 0.00 | 0.00 | 0.00 | 72 | 1047.6 |
| 20260504080736 | 18 | 38 | 1.6 | 3.2 | 0.00 | 0.00 | 0.00 | 72 | 1047.6 |
| 20260504080635 | 18 | 38 | 1.6 | 3.2 | 0.00 | 0.00 | 0.00 | 73 | 1047.6 |
| 20260504080543 | 18 | 38 | 1.6 | 3.2 | 0.00 | 0.00 | 0.00 | 73 | 1047.6 |
| 20260504080435 | 18 | 38 | 1.6 | 6.4 | 0.00 | 0.00 | 0.00 | 73 | 1047.6 |
| 20260504080335 | 18 | 38 | 1.6 | 6.4 | 0.00 | 0.00 | 0.00 | 73 | 1047.6 |
| 20260504080235 | 18 | 38 | 1.6 | 6.4 | 0.00 | 0.00 | 0.00 | 73 | 1047.6 |
| 20260504080156 | 18 | 38 | 3.2 | 6.4 | 0.00 | 0.00 | 0.00 | 73 | 1047.6 |
| 20260504080143 | 18 | 38 | 3.2 | 6.4 | 0.00 | 0.00 | 0.00 | 73 | 1047.6 |
| 20260504080132 | 18 | 38 | 3.2 | 6.4 | 0.00 | 0.00 | 0.00 | 73 | 1047.6 |
| 20260504080122 | 18 | 38 | 3.2 | 6.4 | 0.00 | 0.00 | 0.00 | 72 | 1047.6 |
| 20260504070151 | 17 | 48 | 1.6 | 4.8 | 0.00 | 0.00 | 0.00 | 80 | 1047.9 |
| 20260504070138 | 17 | 48 | 0.0 | 4.8 | 0.00 | 0.00 | 0.00 | 80 | 1047.9 |
| 20260504070126 | 17 | 48 | 0.0 | 3.2 | 0.00 | 0.00 | 0.00 | 80 | 1047.9 |
| 20260504050423 | 14 | 48 | 0.0 | 1.6 | 0.00 | 0.00 | 0.00 | 90 | 1047.8 |
| 20260504050140 | 14 | 48 | 0.0 | 0.0 | 0.00 | 0.00 | 0.00 | 90 | 1047.8 |
| 20260504045910 | 14 | 48 | 0.0 | 0.0 | 0.00 | 0.00 | 0.00 | 90 | 1047.8 |
| 20260504045901 | 14 | 49 | 0.0 | 0.0 | 0.00 | 0.00 | 0.00 | 90 | 1047.8 |
| 20260504045852 | 14 | 48 | 0.0 | 1.6 | 0.00 | 0.00 | 0.00 | 90 | 1047.9 |
| 20260504045612 | 14 | 48 | 0.0 | 1.6 | 0.00 | 0.00 | 0.00 | 90 | 1047.9 |
| 20260504045118 | 14 | 48 | 0.0 | 1.6 | 0.00 | 0.00 | 0.00 | 90 | 1047.9 |
| 20260504045104 | 14 | 48 | 0.0 | 1.6 | 0.00 | 0.00 | 0.00 | 90 | 1047.9 |
| 20260504045052 | 14 | 49 | 0.0 | 1.6 | 0.00 | 0.00 | 0.00 | 90 | 1047.9 |
| 20260504045041 | 14 | 73 | 0.0 | 1.6 | 0.00 | 0.00 | 0.00 | 90 | 1047.9 |
| 20260504045033 | 14 | 72 | 0.0 | 1.6 | 0.00 | 0.00 | 0.00 | 90 | 1047.9 |
| 20260504044455 | 14 | 73 | 0.0 | 1.6 | 0.00 | 0.00 | 0.00 | 90 | 1047.9 |
| 20260504044425 | 14 | 73 | 0.0 | 3.2 | 0.00 | 0.00 | 0.00 | 90 | 1047.9 |
| 20260504044418 | 14 | 73 | 0.0 | 3.2 | 0.00 | 0.00 | 0.00 | 90 | 1047.9 |
| 20260504044130 | 14 | 73 | 0.0 | 3.2 | 0.00 | 0.00 | 0.00 | 90 | 1047.9 |
| 20260504044123 | 14 | 71 | 0.0 | 3.2 | 0.00 | 0.00 | 0.00 | 90 | 1047.9 |
| 20260504044111 | 14 | 73 | 0.0 | 3.2 | 0.00 | 0.00 | 0.00 | 90 | 1047.9 |
| 20260504043750 | 14 | 73 | 0.0 | 3.2 | 0.00 | 0.00 | 0.00 | 90 | 1048.0 |
| 20260504043625 | 14 | 73 | 0.0 | 3.2 | 0.00 | 0.00 | 0.00 | 90 | 1047.9 |
| 20260504043621 | 14 | 72 | 0.0 | 3.2 | 0.00 | 0.00 | 0.00 | 90 | 1047.9 |
| 20260504043610 | 14 | 73 | 0.0 | 3.2 | 0.00 | 0.00 | 0.00 | 90 | 1047.9 |
| 20260504043240 | 14 | 73 | 0.0 | 3.2 | 0.00 | 0.00 | 0.00 | 90 | 1047.9 |
| 20260504043203 | 14 | 73 | 0.0 | 3.2 | 0.00 | 0.00 | 0.00 | 90 | 1048.0 |
| 20260504043159 | 14 | 73 | 0.0 | 1.6 | 0.00 | 0.00 | 0.00 | 90 | 1048.0 |
| 20260504042832 | 14 | 73 | 0.0 | 3.2 | 0.00 | 0.00 | 0.00 | 90 | 1048.0 |
| 20260504042732 | 14 | 73 | 0.0 | 3.2 | 0.00 | 0.00 | 0.00 | 90 | 1048.0 |
| 20260504042719 | 14 | 72 | 0.0 | 3.2 | 0.00 | 0.00 | 0.00 | 90 | 1048.0 |
| 20260504042708 | 14 | 73 | 0.0 | 3.2 | 0.00 | 0.00 | 0.00 | 90 | 1048.0 |
| 20260504042701 | 14 | 73 | 0.0 | 3.2 | 0.00 | 0.00 | 0.00 | 90 | 1048.0 |
| 20260504042653 | 14 | 73 | 0.0 | 3.2 | 0.00 | 0.00 | 0.00 | 90 | 1048.0 |
| 20260504042645 | 14 | 73 | 0.0 | 3.2 | 0.00 | 0.00 | 0.00 | 90 | 1048.0 |
| 20260504042158 | 14 | 73 | 1.6 | 3.2 | 0.00 | 0.00 | 0.00 | 90 | 1048.0 |
| 20260504042147 | 14 | 73 | 0.0 | 3.2 | 0.00 | 0.00 | 0.00 | 90 | 1048.1 |
| 20260504041900 | 14 | 73 | 0.0 | 3.2 | 0.00 | 0.00 | 0.00 | 90 | 1048.0 |
| 20260504041850 | 14 | 73 | 0.0 | 3.2 | 0.00 | 0.00 | 0.00 | 90 | 1048.1 |
| 20260504041834 | 14 | 73 | 0.0 | 3.2 | 0.00 | 0.00 | 0.00 | 90 | 1048.1 |
| 20260504041517 | 14 | 73 | 0.0 | 3.2 | 0.00 | 0.00 | 0.00 | 90 | 1048.1 |
| 20260504041415 | 14 | 73 | 0.0 | 3.2 | 0.00 | 0.00 | 0.00 | 90 | 1048.1 |
| 20260504041315 | 14 | 73 | 0.0 | 3.2 | 0.00 | 0.00 | 0.00 | 90 | 1048.1 |
| 20260504041227 | 14 | 73 | 0.0 | 3.2 | 0.00 | 0.00 | 0.00 | 90 | 1048.1 |
| 20260504041126 | 14 | 73 | 0.0 | 3.2 | 0.00 | 0.00 | 0.00 | 90 | 1048.1 |
| 20260504041006 | 14 | 73 | 0.0 | 3.2 | 0.00 | 0.00 | 0.00 | 90 | 1048.2 |
| 20260504040904 | 14 | 73 | 0.0 | 3.2 | 0.00 | 0.00 | 0.00 | 90 | 1048.2 |
| 20260504040804 | 14 | 73 | 0.0 | 3.2 | 0.00 | 0.00 | 0.00 | 90 | 1048.2 |
| 20260504040703 | 14 | 73 | 1.6 | 3.2 | 0.00 | 0.00 | 0.00 | 90 | 1048.2 |
| 20260504040603 | 14 | 73 | 1.6 | 3.2 | 0.00 | 0.00 | 0.00 | 90 | 1048.2 |
| 20260504040503 | 14 | 73 | 1.6 | 3.2 | 0.00 | 0.00 | 0.00 | 90 | 1048.2 |
| 20260504040402 | 14 | 73 | 1.6 | 3.2 | 0.00 | 0.00 | 0.00 | 90 | 1048.2 |
| 20260504040349 | 14 | 73 | 1.6 | 3.2 | 0.00 | 0.00 | 0.00 | 90 | 1048.2 |
| 20260504040331 | 14 | 73 | 1.6 | 3.2 | 0.00 | 0.00 | 0.00 | 90 | 1048.2 |
| 20260504040308 | 14 | 73 | 1.6 | 3.2 | 0.00 | 0.00 | 0.00 | 90 | 1048.2 |
| 20260504040043 | 14 | 73 | 1.6 | 3.2 | 0.00 | 0.00 | 0.00 | 90 | 1048.2 |
| 20260504040028 | 14 | 73 | 1.6 | 3.2 | 0.00 | 0.00 | 0.00 | 90 | 1048.2 |
| 20260504035759 | 14 | 73 | 1.6 | 3.2 | 0.00 | 0.00 | 0.00 | 90 | 1048.2 |
| 20260504035747 | 14 | 73 | 1.6 | 3.2 | 0.00 | 0.00 | 0.00 | 90 | 1048.2 |
| 20260504035518 | 14 | 73 | 1.6 | 3.2 | 0.00 | 0.00 | 0.00 | 90 | 1048.2 |
| 20260504035200 | 14 | 73 | 1.6 | 3.2 | 0.00 | 0.00 | 0.00 | 90 | 1048.2 |
| 20260504035110 | 14 | 73 | 1.6 | 3.2 | 0.00 | 0.00 | 0.00 | 90 | 1048.2 |
| 20260504035056 | 14 | 73 | 1.6 | 4.8 | 0.00 | 0.00 | 0.00 | 90 | 1048.2 |
| 20260504035027 | 14 | 73 | 1.6 | 4.8 | 0.00 | 0.00 | 0.00 | 90 | 1048.2 |
| 20260504035020 | 14 | 73 | 1.6 | 4.8 | 0.00 | 0.00 | 0.00 | 90 | 1048.2 |
| 20260504034651 | 14 | 73 | 1.6 | 4.8 | 0.00 | 0.00 | 0.00 | 90 | 1048.2 |
| 20260504034605 | 14 | 73 | 1.6 | 4.8 | 0.00 | 0.00 | 0.00 | 90 | 1048.2 |
| 20260504034550 | 14 | 73 | 1.6 | 4.8 | 0.00 | 0.00 | 0.00 | 90 | 1048.2 |
| 20260504034450 | 14 | 73 | 1.6 | 4.8 | 0.00 | 0.00 | 0.00 | 90 | 1048.2 |
| 20260504034351 | 14 | 73 | 1.6 | 4.8 | 0.00 | 0.00 | 0.00 | 90 | 1048.2 |
| 20260504034247 | 14 | 73 | 3.2 | 4.8 | 0.00 | 0.00 | 0.00 | 90 | 1048.2 |
| 20260504034222 | 14 | 73 | 3.2 | 4.8 | 0.00 | 0.00 | 0.00 | 90 | 1048.2 |
| 20260504034213 | 14 | 73 | 1.6 | 4.8 | 0.00 | 0.00 | 0.00 | 90 | 1048.2 |
| 20260504034209 | 14 | 73 | 1.6 | 4.8 | 0.00 | 0.00 | 0.00 | 90 | 1048.2 |
| 20260504033846 | 14 | 73 | 1.6 | 4.8 | 0.00 | 0.00 | 0.00 | 90 | 1048.1 |
| 20260504033741 | 14 | 73 | 1.6 | 4.8 | 0.00 | 0.00 | 0.00 | 90 | 1048.2 |
| 20260504033723 | 14 | 73 | 1.6 | 4.8 | 0.00 | 0.00 | 0.00 | 90 | 1048.2 |
| 20260504033713 | 14 | 72 | 1.6 | 4.8 | 0.00 | 0.00 | 0.00 | 90 | 1048.2 |
| 20260504033705 | 14 | 73 | 1.6 | 4.8 | 0.00 | 0.00 | 0.00 | 90 | 1048.2 |
| 20260504033338 | 14 | 73 | 1.6 | 4.8 | 0.00 | 0.00 | 0.00 | 90 | 1048.1 |
| 20260504033233 | 14 | 73 | 1.6 | 3.2 | 0.00 | 0.00 | 0.00 | 90 | 1048.1 |
| 20260504033104 | 14 | 73 | 1.6 | 3.2 | 0.00 | 0.00 | 0.00 | 90 | 1048.1 |
| 20260504033032 | 14 | 73 | 1.6 | 3.2 | 0.00 | 0.00 | 0.00 | 90 | 1048.1 |
| 20260504032931 | 14 | 73 | 1.6 | 3.2 | 0.00 | 0.00 | 0.00 | 90 | 1048.1 |
| 20260504032829 | 14 | 73 | 1.6 | 3.2 | 0.00 | 0.00 | 0.00 | 90 | 1048.1 |
| 20260504032727 | 14 | 73 | 1.6 | 3.2 | 0.00 | 0.00 | 0.00 | 90 | 1048.1 |
| 20260504032604 | 14 | 73 | 1.6 | 3.2 | 0.00 | 0.00 | 0.00 | 90 | 1048.1 |
| 20260504032527 | 14 | 73 | 1.6 | 3.2 | 0.00 | 0.00 | 0.00 | 90 | 1048.1 |
| 20260504032425 | 14 | 73 | 1.6 | 3.2 | 0.00 | 0.00 | 0.00 | 90 | 1048.1 |
| 20260504032340 | 14 | 73 | 1.6 | 3.2 | 0.00 | 0.00 | 0.00 | 90 | 1048.1 |
| 20260504032332 | 14 | 73 | 1.6 | 3.2 | 0.00 | 0.00 | 0.00 | 90 | 1048.1 |
| 20260504032308 | 14 | 73 | 1.6 | 3.2 | 0.00 | 0.00 | 0.00 | 90 | 1048.1 |
| 20260504032303 | 14 | 72 | 1.6 | 3.2 | 0.00 | 0.00 | 0.00 | 90 | 1048.1 |
| 20260504032250 | 14 | 73 | 0.0 | 3.2 | 0.00 | 0.00 | 0.00 | 90 | 1048.2 |
| 20260504032245 | 14 | 73 | 0.0 | 3.2 | 0.00 | 0.00 | 0.00 | 90 | 1048.2 |
| 20260504032005 | 14 | 73 | 0.0 | 3.2 | 0.00 | 0.00 | 0.00 | 90 | 1048.1 |
| 20260504031207 | 14 | 73 | 0.0 | 0.0 | 0.00 | 0.00 | 0.00 | 90 | 1048.1 |
| 20260504031137 | 14 | 73 | 0.0 | 0.0 | 0.00 | 0.00 | 0.00 | 90 | 1048.1 |
| 20260504031128 | 14 | 73 | 0.0 | 0.0 | 0.00 | 0.00 | 0.00 | 90 | 1048.1 |
| 20260504030804 | 14 | 73 | 0.0 | 1.6 | 0.00 | 0.00 | 0.00 | 90 | 1048.1 |
| 20260504030700 | 14 | 73 | 0.0 | 1.6 | 0.00 | 0.00 | 0.00 | 90 | 1048.1 |
| 20260504030607 | 14 | 73 | 0.0 | 1.6 | 0.00 | 0.00 | 0.00 | 90 | 1048.1 |
| 20260504030558 | 14 | 73 | 0.0 | 1.6 | 0.00 | 0.00 | 0.00 | 90 | 1048.1 |
| 20260504030458 | 14 | 73 | 0.0 | 1.6 | 0.00 | 0.00 | 0.00 | 90 | 1048.1 |
| 20260504030357 | 14 | 73 | 0.0 | 3.2 | 0.00 | 0.00 | 0.00 | 90 | 1048.0 |
| 20260504030255 | 14 | 73 | 0.0 | 3.2 | 0.00 | 0.00 | 0.00 | 90 | 1048.1 |
| 20260504030150 | 14 | 73 | 0.0 | 3.2 | 0.00 | 0.00 | 0.00 | 90 | 1048.1 |
| 20260504030111 | 14 | 73 | 1.6 | 3.2 | 0.00 | 0.00 | 0.00 | 90 | 1048.1 |
| 20260504030048 | 14 | 73 | 1.6 | 3.2 | 0.00 | 0.00 | 0.00 | 90 | 1048.1 |
| 20260504025948 | 14 | 73 | 1.6 | 3.2 | 0.00 | 0.00 | 0.00 | 90 | 1048.1 |
| 20260504025846 | 14 | 73 | 1.6 | 3.2 | 0.00 | 0.00 | 0.00 | 90 | 1048.1 |
| 20260504025744 | 14 | 73 | 1.6 | 3.2 | 0.00 | 0.00 | 0.00 | 90 | 1048.1 |
| 20260504025653 | 14 | 72 | 1.6 | 3.2 | 0.00 | 0.00 | 0.00 | 90 | 1048.1 |
| 20260504025644 | 14 | 73 | 1.6 | 3.2 | 0.00 | 0.00 | 0.00 | 90 | 1048.1 |
| 20260504025640 | 14 | 73 | 0.0 | 3.2 | 0.00 | 0.00 | 0.00 | 90 | 1048.0 |
| 20260504025623 | 14 | 73 | 0.0 | 3.2 | 0.00 | 0.00 | 0.00 | 90 | 1048.1 |
| 20260504025615 | 14 | 73 | 0.0 | 3.2 | 0.00 | 0.00 | 0.00 | 90 | 1048.1 |
| 20260504025101 | 14 | 73 | 0.0 | 1.6 | 0.00 | 0.00 | 0.00 | 90 | 1048.1 |
| 20260504025033 | 14 | 73 | 0.0 | 1.6 | 0.00 | 0.00 | 0.00 | 90 | 1048.1 |
| 20260504024931 | 14 | 75 | 0.0 | 1.6 | 0.00 | 0.00 | 0.00 | 90 | 1048.1 |
| 20260504024831 | 14 | 73 | 0.0 | 3.2 | 0.00 | 0.00 | 0.00 | 90 | 1048.1 |
| 20260504024731 | 14 | 73 | 0.0 | 3.2 | 0.00 | 0.00 | 0.00 | 89 | 1048.1 |
| 20260504024602 | 14 | 73 | 0.0 | 3.2 | 0.00 | 0.00 | 0.00 | 89 | 1048.1 |
| 20260504024524 | 14 | 73 | 1.6 | 3.2 | 0.00 | 0.00 | 0.00 | 89 | 1048.1 |
| 20260504024424 | 14 | 73 | 1.6 | 3.2 | 0.00 | 0.00 | 0.00 | 89 | 1048.1 |
| 20260504024322 | 14 | 73 | 1.6 | 3.2 | 0.00 | 0.00 | 0.00 | 89 | 1048.1 |
| 20260504024219 | 14 | 73 | 1.6 | 3.2 | 0.00 | 0.00 | 0.00 | 89 | 1048.1 |
| 20260504024116 | 14 | 73 | 1.6 | 3.2 | 0.00 | 0.00 | 0.00 | 89 | 1048.1 |
| 20260504024101 | 14 | 72 | 1.6 | 3.2 | 0.00 | 0.00 | 0.00 | 89 | 1048.1 |
| 20260504024016 | 14 | 73 | 1.6 | 3.2 | 0.00 | 0.00 | 0.00 | 89 | 1048.1 |
| 20260504023916 | 14 | 73 | 1.6 | 3.2 | 0.00 | 0.00 | 0.00 | 89 | 1048.2 |
| 20260504023816 | 14 | 73 | 1.6 | 3.2 | 0.00 | 0.00 | 0.00 | 89 | 1048.2 |
| 20260504023714 | 14 | 73 | 0.0 | 3.2 | 0.00 | 0.00 | 0.00 | 89 | 1048.2 |
| 20260504023602 | 14 | 73 | 0.0 | 3.2 | 0.00 | 0.00 | 0.00 | 89 | 1048.2 |
| 20260504023512 | 14 | 73 | 0.0 | 3.2 | 0.00 | 0.00 | 0.00 | 89 | 1048.2 |
| 20260504023447 | 14 | 74 | 0.0 | 3.2 | 0.00 | 0.00 | 0.00 | 89 | 1048.2 |
| 20260504023440 | 14 | 73 | 0.0 | 3.2 | 0.00 | 0.00 | 0.00 | 89 | 1048.1 |
| 20260504023110 | 14 | 75 | 0.0 | 0.0 | 0.00 | 0.00 | 0.00 | 89 | 1048.1 |
| 20260504023102 | 14 | 73 | 0.0 | 0.0 | 0.00 | 0.00 | 0.00 | 89 | 1048.1 |
| 20260504023010 | 14 | 73 | 0.0 | 0.0 | 0.00 | 0.00 | 0.00 | 89 | 1048.1 |
| 20260504022908 | 14 | 73 | 0.0 | 0.0 | 0.00 | 0.00 | 0.00 | 89 | 1048.1 |
| 20260504022838 | 14 | 73 | 0.0 | 0.0 | 0.00 | 0.00 | 0.00 | 89 | 1048.1 |
| 20260504022831 | 14 | 73 | 0.0 | 0.0 | 0.00 | 0.00 | 0.00 | 89 | 1048.1 |
| 20260504022603 | 14 | 73 | 0.0 | 0.0 | 0.00 | 0.00 | 0.00 | 89 | 1048.1 |
| 20260504022506 | 14 | 73 | 0.0 | 0.0 | 0.00 | 0.00 | 0.00 | 89 | 1048.1 |
| 20260504022402 | 14 | 73 | 0.0 | 0.0 | 0.00 | 0.00 | 0.00 | 89 | 1048.1 |
| 20260504022339 | 14 | 73 | 0.0 | 0.0 | 0.00 | 0.00 | 0.00 | 89 | 1048.1 |
| 20260504022329 | 14 | 73 | 0.0 | 0.0 | 0.00 | 0.00 | 0.00 | 89 | 1048.1 |
| 20260504022101 | 14 | 73 | 0.0 | 0.0 | 0.00 | 0.00 | 0.00 | 89 | 1048.1 |
| 20260504022005 | 14 | 73 | 0.0 | 0.0 | 0.00 | 0.00 | 0.00 | 89 | 1048.1 |
| 20260504021901 | 14 | 73 | 0.0 | 1.6 | 0.00 | 0.00 | 0.00 | 89 | 1048.1 |
| 20260504021800 | 14 | 73 | 0.0 | 1.6 | 0.00 | 0.00 | 0.00 | 89 | 1048.1 |
| 20260504021700 | 14 | 73 | 0.0 | 1.6 | 0.00 | 0.00 | 0.00 | 89 | 1048.1 |
| 20260504021610 | 14 | 73 | 0.0 | 1.6 | 0.00 | 0.00 | 0.00 | 89 | 1048.1 |
| 20260504021600 | 14 | 73 | 0.0 | 1.6 | 0.00 | 0.00 | 0.00 | 89 | 1048.1 |
| 20260504021528 | 14 | 73 | 0.0 | 1.6 | 0.00 | 0.00 | 0.00 | 89 | 1048.1 |
| 20260504021519 | 14 | 73 | 0.0 | 1.6 | 0.00 | 0.00 | 0.00 | 89 | 1048.2 |
| 20260504021509 | 14 | 73 | 0.0 | 1.6 | 0.00 | 0.00 | 0.00 | 89 | 1048.1 |
| 20260504021450 | 14 | 73 | 0.0 | 1.6 | 0.00 | 0.00 | 0.00 | 89 | 1048.1 |
| 20260504020854 | 14 | 73 | 0.0 | 0.0 | 0.00 | 0.00 | 0.00 | 89 | 1048.2 |
| 20260504020752 | 14 | 73 | 0.0 | 0.0 | 0.00 | 0.00 | 0.00 | 89 | 1048.2 |
| 20260504020652 | 14 | 73 | 0.0 | 0.0 | 0.00 | 0.00 | 0.00 | 89 | 1048.2 |
| 20260504020603 | 14 | 73 | 0.0 | 0.0 | 0.00 | 0.00 | 0.00 | 89 | 1048.2 |
| 20260504020550 | 14 | 73 | 0.0 | 0.0 | 0.00 | 0.00 | 0.00 | 89 | 1048.2 |
| 20260504020448 | 14 | 73 | 0.0 | 0.0 | 0.00 | 0.00 | 0.00 | 89 | 1048.2 |
| 20260504020344 | 14 | 73 | 0.0 | 0.0 | 0.00 | 0.00 | 0.00 | 89 | 1048.2 |
| 20260504020242 | 14 | 73 | 0.0 | 0.0 | 0.00 | 0.00 | 0.00 | 89 | 1048.2 |
| 20260504020140 | 14 | 73 | 0.0 | 0.0 | 0.00 | 0.00 | 0.00 | 89 | 1048.2 |
| 20260504020104 | 14 | 73 | 0.0 | 0.0 | 0.00 | 0.00 | 0.00 | 89 | 1048.2 |
| 20260504020040 | 14 | 73 | 0.0 | 0.0 | 0.00 | 0.00 | 0.00 | 90 | 1048.3 |
| 20260504015938 | 14 | 72 | 0.0 | 0.0 | 0.00 | 0.00 | 0.00 | 90 | 1048.3 |
| 20260504015834 | 14 | 73 | 0.0 | 1.6 | 0.00 | 0.00 | 0.00 | 90 | 1048.3 |
| 20260504015751 | 14 | 73 | 0.0 | 1.6 | 0.00 | 0.00 | 0.00 | 90 | 1048.3 |
| 20260504015735 | 14 | 73 | 0.0 | 1.6 | 0.00 | 0.00 | 0.00 | 90 | 1048.2 |
| 20260504015724 | 14 | 73 | 0.0 | 1.6 | 0.00 | 0.00 | 0.00 | 90 | 1048.3 |
| 20260504015712 | 14 | 73 | 0.0 | 1.6 | 0.00 | 0.00 | 0.00 | 89 | 1048.2 |
| 20260504015130 | 14 | 73 | 0.0 | 1.6 | 0.00 | 0.00 | 0.00 | 89 | 1048.3 |
| 20260504015104 | 14 | 72 | 0.0 | 1.6 | 0.00 | 0.00 | 0.00 | 89 | 1048.3 |
| 20260504015028 | 14 | 73 | 0.0 | 1.6 | 0.00 | 0.00 | 0.00 | 89 | 1048.3 |
| 20260504014926 | 14 | 73 | 0.0 | 1.6 | 0.00 | 0.00 | 0.00 | 89 | 1048.3 |
| 20260504014822 | 14 | 73 | 0.0 | 1.6 | 0.00 | 0.00 | 0.00 | 89 | 1048.3 |
| 20260504014814 | 14 | 73 | 0.0 | 1.6 | 0.00 | 0.00 | 0.00 | 89 | 1048.3 |
| 20260504014755 | 14 | 73 | 0.0 | 1.6 | 0.00 | 0.00 | 0.00 | 89 | 1048.3 |
| 20260504014743 | 14 | 73 | 0.0 | 1.6 | 0.00 | 0.00 | 0.00 | 89 | 1048.3 |
| 20260504014506 | 14 | 73 | 0.0 | 3.2 | 0.00 | 0.00 | 0.00 | 89 | 1048.3 |
| 20260504014456 | 14 | 73 | 0.0 | 3.2 | 0.00 | 0.00 | 0.00 | 90 | 1048.4 |
| 20260504014448 | 14 | 73 | 0.0 | 3.2 | 0.00 | 0.00 | 0.00 | 90 | 1048.4 |
| 20260504013910 | 14 | 73 | 0.0 | 3.2 | 0.00 | 0.00 | 0.00 | 90 | 1048.5 |
| 20260504013822 | 14 | 73 | 0.0 | 3.2 | 0.00 | 0.00 | 0.00 | 90 | 1048.5 |
| 20260504013814 | 14 | 73 | 1.6 | 3.2 | 0.00 | 0.00 | 0.00 | 90 | 1048.5 |
| 20260504013756 | 14 | 73 | 1.6 | 3.2 | 0.00 | 0.00 | 0.00 | 90 | 1048.5 |
| 20260504013525 | 14 | 73 | 1.6 | 3.2 | 0.00 | 0.00 | 0.00 | 90 | 1048.5 |
| 20260504013202 | 14 | 73 | 1.6 | 6.4 | 0.00 | 0.00 | 0.00 | 90 | 1048.5 |
| 20260504013101 | 14 | 73 | 1.6 | 6.4 | 0.00 | 0.00 | 0.00 | 90 | 1048.5 |
| 20260504013013 | 14 | 73 | 1.6 | 6.4 | 0.00 | 0.00 | 0.00 | 90 | 1048.5 |
| 20260504012901 | 14 | 73 | 1.6 | 6.4 | 0.00 | 0.00 | 0.00 | 90 | 1048.5 |
| 20260504012802 | 14 | 73 | 1.6 | 6.4 | 0.00 | 0.00 | 0.00 | 90 | 1048.5 |
| 20260504012701 | 14 | 73 | 1.6 | 6.4 | 0.00 | 0.00 | 0.00 | 90 | 1048.5 |
| 20260504012639 | 14 | 73 | 1.6 | 6.4 | 0.00 | 0.00 | 0.00 | 90 | 1048.5 |
| 20260504012629 | 14 | 73 | 1.6 | 6.4 | 0.00 | 0.00 | 0.00 | 90 | 1048.5 |
| 20260504012615 | 14 | 73 | 1.6 | 6.4 | 0.00 | 0.00 | 0.00 | 90 | 1048.5 |
| 20260504012346 | 14 | 75 | 1.6 | 4.8 | 0.00 | 0.00 | 0.00 | 90 | 1048.5 |
| 20260504012326 | 14 | 75 | 1.6 | 4.8 | 0.00 | 0.00 | 0.00 | 90 | 1048.5 |
| 20260504012053 | 14 | 75 | 1.6 | 4.8 | 0.00 | 0.00 | 0.00 | 90 | 1048.5 |
| 20260504012047 | 14 | 75 | 1.6 | 4.8 | 0.00 | 0.00 | 0.00 | 90 | 1048.5 |
| 20260504012038 | 14 | 75 | 1.6 | 4.8 | 0.00 | 0.00 | 0.00 | 90 | 1048.5 |
| 20260504011458 | 14 | 75 | 0.0 | 3.2 | 0.00 | 0.00 | 0.00 | 90 | 1048.5 |
| 20260504011356 | 14 | 75 | 0.0 | 3.2 | 0.00 | 0.00 | 0.00 | 90 | 1048.6 |
| 20260504011335 | 14 | 75 | 0.0 | 3.2 | 0.00 | 0.00 | 0.00 | 90 | 1048.6 |
| 20260504011315 | 14 | 75 | 0.0 | 1.6 | 0.00 | 0.00 | 0.00 | 90 | 1048.6 |
| 20260504010956 | 14 | 75 | 0.0 | 1.6 | 0.00 | 0.00 | 0.00 | 90 | 1048.6 |
| 20260504010855 | 14 | 75 | 0.0 | 1.6 | 0.00 | 0.00 | 0.00 | 90 | 1048.5 |
| 20260504010754 | 14 | 75 | 1.6 | 3.2 | 0.00 | 0.00 | 0.00 | 90 | 1048.5 |
| 20260504010654 | 14 | 75 | 1.6 | 3.2 | 0.00 | 0.00 | 0.00 | 90 | 1048.5 |
| 20260504010602 | 14 | 75 | 1.6 | 3.2 | 0.00 | 0.00 | 0.00 | 90 | 1048.6 |
| 20260504010552 | 14 | 75 | 1.6 | 3.2 | 0.00 | 0.00 | 0.00 | 90 | 1048.6 |
| 20260504010452 | 14 | 75 | 1.6 | 3.2 | 0.00 | 0.00 | 0.00 | 90 | 1048.6 |
| 20260504010352 | 14 | 75 | 1.6 | 3.2 | 0.00 | 0.00 | 0.00 | 90 | 1048.7 |
| 20260504010312 | 14 | 75 | 1.6 | 3.2 | 0.00 | 0.00 | 0.00 | 90 | 1048.7 |
| 20260504010305 | 14 | 75 | 1.6 | 3.2 | 0.00 | 0.00 | 0.00 | 90 | 1048.7 |
| 20260504010256 | 14 | 75 | 0.0 | 3.2 | 0.00 | 0.00 | 0.00 | 90 | 1048.8 |
| 20260504010251 | 14 | 75 | 0.0 | 3.2 | 0.00 | 0.00 | 0.00 | 90 | 1048.8 |
| 20260504010232 | 14 | 75 | 0.0 | 3.2 | 0.00 | 0.00 | 0.00 | 90 | 1048.7 |
| 20260504010223 | 14 | 75 | 0.0 | 3.2 | 0.00 | 0.00 | 0.00 | 90 | 1048.8 |
| 20260504010218 | 14 | 75 | 0.0 | 3.2 | 0.00 | 0.00 | 0.00 | 90 | 1048.8 |
| 20260504010210 | 14 | 75 | 0.0 | 3.2 | 0.00 | 0.00 | 0.00 | 90 | 1048.8 |
| 20260504005948 | 14 | 75 | 0.0 | 3.2 | 0.00 | 0.00 | 0.00 | 90 | 1048.8 |
| 20260504005702 | 14 | 75 | 0.0 | 3.2 | 0.00 | 0.00 | 0.00 | 90 | 1048.8 |
| 20260504005422 | 14 | 75 | 0.0 | 3.2 | 0.00 | 0.00 | 0.00 | 90 | 1049.0 |
| 20260504005417 | 14 | 75 | 0.0 | 3.2 | 0.00 | 0.00 | 0.00 | 90 | 1049.0 |
| 20260504005138 | 14 | 75 | 0.0 | 1.6 | 0.00 | 0.00 | 0.00 | 90 | 1049.0 |
| 20260504004902 | 14 | 75 | 0.0 | 3.2 | 0.00 | 0.00 | 0.00 | 90 | 1049.0 |
| 20260504004857 | 14 | 75 | 0.0 | 3.2 | 0.00 | 0.00 | 0.00 | 90 | 1049.0 |
| 20260504004839 | 14 | 75 | 0.0 | 3.2 | 0.00 | 0.00 | 0.00 | 90 | 1049.0 |
| 20260504004615 | 14 | 75 | 0.0 | 3.2 | 0.00 | 0.00 | 0.00 | 90 | 1048.8 |
| 20260504004343 | 14 | 75 | 0.0 | 3.2 | 0.00 | 0.00 | 0.00 | 90 | 1048.8 |
| 20260504004338 | 14 | 75 | 1.6 | 3.2 | 0.00 | 0.00 | 0.00 | 90 | 1048.8 |
| 20260504004108 | 14 | 75 | 0.0 | 3.2 | 0.00 | 0.00 | 0.00 | 90 | 1049.0 |
| 20260504003601 | 14 | 75 | 0.0 | 3.2 | 0.00 | 0.00 | 0.00 | 90 | 1049.0 |
| 20260504003529 | 14 | 75 | 1.6 | 3.2 | 0.00 | 0.00 | 0.00 | 90 | 1049.0 |
| 20260504003429 | 14 | 75 | 1.6 | 3.2 | 0.00 | 0.00 | 0.00 | 90 | 1049.0 |
| 20260504003328 | 14 | 75 | 1.6 | 3.2 | 0.00 | 0.00 | 0.00 | 90 | 1049.0 |
| 20260504003228 | 14 | 76 | 1.6 | 4.8 | 0.00 | 0.00 | 0.00 | 90 | 1048.8 |
| 20260504003128 | 14 | 75 | 1.6 | 4.8 | 0.00 | 0.00 | 0.00 | 90 | 1049.0 |
| 20260504003105 | 13 | 75 | 1.6 | 4.8 | 0.00 | 0.00 | 0.00 | 90 | 1049.0 |
| 20260504003026 | 14 | 75 | 1.6 | 4.8 | 0.00 | 0.00 | 0.00 | 90 | 1049.0 |
| 20260504002926 | 13 | 75 | 1.6 | 4.8 | 0.00 | 0.00 | 0.00 | 90 | 1049.0 |
| 20260504002826 | 13 | 75 | 1.6 | 4.8 | 0.00 | 0.00 | 0.00 | 90 | 1049.1 |
| 20260504002726 | 13 | 75 | 1.6 | 4.8 | 0.00 | 0.00 | 0.00 | 90 | 1049.1 |
| 20260504002627 | 13 | 75 | 1.6 | 4.8 | 0.00 | 0.00 | 0.00 | 90 | 1049.1 |
| 20260504002621 | 13 | 75 | 1.6 | 4.8 | 0.00 | 0.00 | 0.00 | 90 | 1049.1 |
| 20260504002603 | 13 | 75 | 1.6 | 4.8 | 0.00 | 0.00 | 0.00 | 90 | 1049.1 |
| 20260504002555 | 13 | 75 | 1.6 | 4.8 | 0.00 | 0.00 | 0.00 | 90 | 1049.1 |
| 20260504002320 | 13 | 75 | 0.0 | 3.2 | 0.00 | 0.00 | 0.00 | 90 | 1049.1 |
| 20260504002048 | 13 | 75 | 1.6 | 3.2 | 0.00 | 0.00 | 0.00 | 90 | 1049.1 |
| 20260504002037 | 13 | 75 | 1.6 | 3.2 | 0.00 | 0.00 | 0.00 | 90 | 1049.1 |
| 20260504001714 | 13 | 75 | 1.6 | 3.2 | 0.00 | 0.00 | 0.00 | 90 | 1049.1 |
| 20260504001622 | 13 | 75 | 1.6 | 3.2 | 0.00 | 0.00 | 0.00 | 90 | 1049.0 |
| 20260504001616 | 13 | 75 | 1.6 | 3.2 | 0.00 | 0.00 | 0.00 | 90 | 1049.0 |
| 20260504001558 | 13 | 75 | 1.6 | 4.8 | 0.00 | 0.00 | 0.00 | 90 | 1049.0 |
| 20260504001550 | 13 | 75 | 1.6 | 4.8 | 0.00 | 0.00 | 0.00 | 90 | 1049.0 |
| 20260504001318 | 13 | 75 | 1.6 | 4.8 | 0.00 | 0.00 | 0.00 | 90 | 1049.1 |
| 20260504001006 | 13 | 75 | 1.6 | 4.8 | 0.00 | 0.00 | 0.00 | 90 | 1049.2 |
| 20260504000901 | 13 | 75 | 1.6 | 4.8 | 0.00 | 0.00 | 0.00 | 90 | 1049.2 |
| 20260504000801 | 13 | 75 | 1.6 | 4.8 | 0.00 | 0.00 | 0.00 | 90 | 1049.2 |
| 20260504000637 | 13 | 75 | 1.6 | 4.8 | 0.00 | 0.00 | 0.00 | 90 | 1049.2 |
| 20260504000633 | 13 | 75 | 1.6 | 4.8 | 0.00 | 0.00 | 0.00 | 90 | 1049.2 |
| 20260504000618 | 13 | 75 | 1.6 | 4.8 | 0.00 | 0.00 | 0.00 | 90 | 1049.2 |
| 20260504000252 | 14 | 75 | 1.6 | 4.8 | 0.00 | 0.00 | 0.00 | 90 | 1049.1 |
| 20260504000231 | 14 | 75 | 1.6 | 4.8 | 0.00 | 0.00 | 0.00 | 90 | 1049.1 |
| 20260504000222 | 13 | 75 | 1.6 | 4.8 | 0.00 | 0.00 | 0.00 | 90 | 1049.1 |
| 20260504000213 | 14 | 75 | 1.6 | 4.8 | 0.00 | 0.00 | 0.00 | 90 | 1049.1 |
| 20260503235854 | 14 | 75 | 1.6 | 4.8 | 0.00 | 0.00 | 0.00 | 90 | 1049.2 |
| 20260503235751 | 14 | 75 | 1.6 | 4.8 | 0.00 | 0.00 | 0.00 | 90 | 1049.2 |
| 20260503235740 | 14 | 75 | 0.0 | 4.8 | 0.00 | 0.00 | 0.00 | 90 | 1049.1 |
| 20260503235731 | 14 | 75 | 0.0 | 4.8 | 0.00 | 0.00 | 0.00 | 90 | 1049.2 |
| 20260503235727 | 14 | 75 | 0.0 | 4.8 | 0.00 | 0.00 | 0.00 | 90 | 1049.2 |
| 20260503235348 | 14 | 75 | 0.0 | 3.2 | 0.00 | 0.00 | 0.00 | 90 | 1049.2 |
| 20260503235324 | 14 | 76 | 0.0 | 3.2 | 0.00 | 0.00 | 0.00 | 90 | 1049.2 |
| 20260503235314 | 14 | 75 | 0.0 | 3.2 | 0.00 | 0.00 | 0.00 | 90 | 1049.1 |
| 20260503235304 | 14 | 75 | 0.0 | 1.6 | 0.00 | 0.00 | 0.00 | 90 | 1049.2 |
| 20260503234946 | 14 | 75 | 0.0 | 0.0 | 0.00 | 0.00 | 0.00 | 90 | 1049.2 |
| 20260503234846 | 14 | 75 | 0.0 | 0.0 | 0.00 | 0.00 | 0.00 | 90 | 1049.2 |
| 20260503234744 | 14 | 75 | 0.0 | 1.6 | 0.00 | 0.00 | 0.00 | 90 | 1049.2 |
| 20260503234644 | 14 | 75 | 0.0 | 1.6 | 0.00 | 0.00 | 0.00 | 90 | 1049.2 |
| 20260503234601 | 14 | 76 | 0.0 | 1.6 | 0.00 | 0.00 | 0.00 | 90 | 1049.1 |
| 20260503234544 | 14 | 75 | 0.0 | 1.6 | 0.00 | 0.00 | 0.00 | 90 | 1049.1 |
| 20260503234517 | 14 | 76 | 0.0 | 1.6 | 0.00 | 0.00 | 0.00 | 90 | 1049.2 |
| 20260503234505 | 14 | 75 | 0.0 | 1.6 | 0.00 | 0.00 | 0.00 | 90 | 1049.2 |
| 20260503234141 | 14 | 75 | 0.0 | 1.6 | 0.00 | 0.00 | 0.00 | 90 | 1049.3 |
| 20260503234101 | 14 | 75 | 0.0 | 1.6 | 0.00 | 0.00 | 0.00 | 90 | 1049.3 |
| 20260503234040 | 14 | 75 | 0.0 | 1.6 | 0.00 | 0.00 | 0.00 | 90 | 1049.3 |
| 20260503233940 | 14 | 75 | 0.0 | 1.6 | 0.00 | 0.00 | 0.00 | 90 | 1049.3 |
| 20260503233841 | 14 | 75 | 0.0 | 1.6 | 0.00 | 0.00 | 0.00 | 90 | 1049.3 |
| 20260503233832 | 14 | 75 | 0.0 | 1.6 | 0.00 | 0.00 | 0.00 | 90 | 1049.3 |
| 20260503233820 | 14 | 75 | 0.0 | 1.6 | 0.00 | 0.00 | 0.00 | 90 | 1049.3 |
| 20260503233538 | 14 | 75 | 0.0 | 1.6 | 0.00 | 0.00 | 0.00 | 90 | 1049.2 |
| 20260503233438 | 14 | 75 | 0.0 | 1.6 | 0.00 | 0.00 | 0.00 | 90 | 1049.3 |
| 20260503233409 | 14 | 75 | 0.0 | 1.6 | 0.00 | 0.00 | 0.00 | 90 | 1049.2 |
| 20260503233402 | 14 | 75 | 0.0 | 1.6 | 0.00 | 0.00 | 0.00 | 90 | 1049.2 |
| 20260503233101 | 14 | 75 | 0.0 | 1.6 | 0.00 | 0.00 | 0.00 | 90 | 1049.3 |
| 20260503233038 | 14 | 75 | 0.0 | 1.6 | 0.00 | 0.00 | 0.00 | 90 | 1049.2 |
| 20260503232938 | 14 | 75 | 0.0 | 1.6 | 0.00 | 0.00 | 0.00 | 90 | 1049.2 |
| 20260503232910 | 14 | 75 | 0.0 | 3.2 | 0.00 | 0.00 | 0.00 | 90 | 1049.2 |
| 20260503232858 | 14 | 75 | 0.0 | 3.2 | 0.00 | 0.00 | 0.00 | 90 | 1049.2 |
| 20260503232847 | 14 | 75 | 1.6 | 3.2 | 0.00 | 0.00 | 0.00 | 90 | 1049.2 |
| 20260503232621 | 14 | 75 | 1.6 | 3.2 | 0.00 | 0.00 | 0.00 | 90 | 1049.2 |
| 20260503232611 | 14 | 75 | 1.6 | 3.2 | 0.00 | 0.00 | 0.00 | 90 | 1049.2 |
| 20260503232234 | 14 | 75 | 1.6 | 3.2 | 0.00 | 0.00 | 0.00 | 90 | 1049.2 |
| 20260503232134 | 14 | 75 | 1.6 | 3.2 | 0.00 | 0.00 | 0.00 | 90 | 1049.2 |
| 20260503232101 | 14 | 75 | 1.6 | 3.2 | 0.00 | 0.00 | 0.00 | 90 | 1049.2 |
| 20260503232034 | 14 | 75 | 1.6 | 3.2 | 0.00 | 0.00 | 0.00 | 90 | 1049.3 |
| 20260503231934 | 14 | 75 | 1.6 | 3.2 | 0.00 | 0.00 | 0.00 | 90 | 1049.3 |
| 20260503231903 | 14 | 75 | 1.6 | 4.8 | 0.00 | 0.00 | 0.00 | 90 | 1049.3 |
| 20260503231855 | 14 | 75 | 1.6 | 4.8 | 0.00 | 0.00 | 0.00 | 90 | 1049.3 |
| 20260503231601 | 14 | 75 | 1.6 | 4.8 | 0.00 | 0.00 | 0.00 | 90 | 1049.3 |
| 20260503231531 | 14 | 76 | 1.6 | 4.8 | 0.00 | 0.00 | 0.00 | 90 | 1049.3 |
| 20260503231432 | 14 | 75 | 1.6 | 4.8 | 0.00 | 0.00 | 0.00 | 90 | 1049.3 |
| 20260503231329 | 14 | 75 | 1.6 | 4.8 | 0.00 | 0.00 | 0.00 | 90 | 1049.3 |
| 20260503231230 | 14 | 75 | 1.6 | 4.8 | 0.00 | 0.00 | 0.00 | 90 | 1049.3 |
| 20260503231101 | 14 | 75 | 1.6 | 4.8 | 0.00 | 0.00 | 0.00 | 90 | 1049.4 |
| 20260503231027 | 14 | 76 | 0.0 | 4.8 | 0.00 | 0.00 | 0.00 | 90 | 1049.3 |
| 20260503230922 | 14 | 76 | 0.0 | 4.8 | 0.00 | 0.00 | 0.00 | 90 | 1049.3 |
| 20260503230822 | 14 | 75 | 0.0 | 3.2 | 0.00 | 0.00 | 0.00 | 90 | 1049.3 |
| 20260503230722 | 14 | 75 | 0.0 | 3.2 | 0.00 | 0.00 | 0.00 | 90 | 1049.3 |
| 20260503230601 | 14 | 75 | 0.0 | 1.6 | 0.00 | 0.00 | 0.00 | 90 | 1049.3 |
| 20260503230519 | 14 | 75 | 0.0 | 1.6 | 0.00 | 0.00 | 0.00 | 90 | 1049.3 |
| 20260503230419 | 14 | 75 | 0.0 | 1.6 | 0.00 | 0.00 | 0.00 | 90 | 1049.4 |
| 20260503230318 | 14 | 75 | 0.0 | 1.6 | 0.00 | 0.00 | 0.00 | 90 | 1049.3 |
| 20260503230254 | 14 | 75 | 0.0 | 1.6 | 0.00 | 0.00 | 0.00 | 90 | 1049.3 |
| 20260503230233 | 14 | 76 | 0.0 | 3.2 | 0.00 | 0.00 | 0.00 | 90 | 1049.3 |
| 20260503225910 | 14 | 75 | 0.0 | 3.2 | 0.00 | 0.00 | 0.00 | 89 | 1049.3 |
| 20260503225810 | 14 | 75 | 1.6 | 3.2 | 0.00 | 0.00 | 0.00 | 89 | 1049.3 |
| 20260503225710 | 14 | 75 | 1.6 | 3.2 | 0.00 | 0.00 | 0.00 | 89 | 1049.3 |
| 20260503225645 | 14 | 76 | 1.6 | 3.2 | 0.00 | 0.00 | 0.00 | 89 | 1049.2 |
| 20260503225637 | 14 | 75 | 1.6 | 3.2 | 0.00 | 0.00 | 0.00 | 89 | 1049.2 |
| 20260503225631 | 14 | 75 | 1.6 | 3.2 | 0.00 | 0.00 | 0.00 | 89 | 1049.2 |
| 20260503225616 | 14 | 74 | 1.6 | 3.2 | 0.00 | 0.00 | 0.00 | 89 | 1049.3 |
| 20260503225604 | 14 | 75 | 1.6 | 4.8 | 0.00 | 0.00 | 0.00 | 89 | 1049.3 |
| 20260503225103 | 14 | 75 | 1.6 | 4.8 | 0.00 | 0.00 | 0.00 | 89 | 1049.3 |
| 20260503225037 | 14 | 75 | 1.6 | 4.8 | 0.00 | 0.00 | 0.00 | 89 | 1049.3 |
| 20260503225025 | 14 | 75 | 1.6 | 4.8 | 0.00 | 0.00 | 0.00 | 89 | 1049.3 |
| 20260503224705 | 14 | 75 | 1.6 | 4.8 | 0.00 | 0.00 | 0.00 | 89 | 1049.3 |
| 20260503224604 | 14 | 75 | 1.6 | 4.8 | 0.00 | 0.00 | 0.00 | 89 | 1049.4 |
| 20260503224507 | 14 | 75 | 1.6 | 4.8 | 0.00 | 0.00 | 0.00 | 89 | 1049.3 |
| 20260503224403 | 14 | 76 | 1.6 | 4.8 | 0.00 | 0.00 | 0.00 | 89 | 1049.4 |
| 20260503224304 | 14 | 75 | 1.6 | 4.8 | 0.00 | 0.00 | 0.00 | 89 | 1049.3 |
| 20260503224205 | 14 | 75 | 0.0 | 4.8 | 0.00 | 0.00 | 0.00 | 89 | 1049.4 |
| 20260503224103 | 14 | 75 | 0.0 | 4.8 | 0.00 | 0.00 | 0.00 | 89 | 1049.4 |
| 20260503224006 | 14 | 75 | 0.0 | 4.8 | 0.00 | 0.00 | 0.00 | 89 | 1049.4 |
| 20260503223903 | 14 | 75 | 0.0 | 4.8 | 0.00 | 0.00 | 0.00 | 89 | 1049.4 |
| 20260503223843 | 14 | 75 | 0.0 | 4.8 | 0.00 | 0.00 | 0.00 | 89 | 1049.4 |
| 20260503223835 | 13 | 75 | 0.0 | 4.8 | 0.00 | 0.00 | 0.00 | 89 | 1049.5 |
| 20260503223604 | 13 | 75 | 0.0 | 4.8 | 0.00 | 0.00 | 0.00 | 89 | 1049.4 |
| 20260503223505 | 13 | 75 | 0.0 | 4.8 | 0.00 | 0.00 | 0.00 | 89 | 1049.4 |
| 20260503223405 | 13 | 75 | 0.0 | 4.8 | 0.00 | 0.00 | 0.00 | 89 | 1049.4 |
| 20260503223305 | 13 | 75 | 0.0 | 4.8 | 0.00 | 0.00 | 0.00 | 89 | 1049.4 |
| 20260503223204 | 13 | 75 | 0.0 | 4.8 | 0.00 | 0.00 | 0.00 | 89 | 1049.3 |
| 20260503223104 | 13 | 73 | 0.0 | 3.2 | 0.00 | 0.00 | 0.00 | 89 | 1049.4 |
| 20260503223006 | 13 | 74 | 0.0 | 1.6 | 0.00 | 0.00 | 0.00 | 89 | 1049.3 |
| 20260503222904 | 13 | 74 | 0.0 | 1.6 | 0.00 | 0.00 | 0.00 | 89 | 1049.3 |
| 20260503222804 | 13 | 74 | 0.0 | 1.6 | 0.00 | 0.00 | 0.00 | 89 | 1049.3 |
| 20260503222705 | 13 | 74 | 0.0 | 1.6 | 0.00 | 0.00 | 0.00 | 89 | 1049.3 |
| 20260503222604 | 13 | 74 | 0.0 | 0.0 | 0.00 | 0.00 | 0.00 | 89 | 1049.3 |
| 20260503222506 | 13 | 74 | 0.0 | 0.0 | 0.00 | 0.00 | 0.00 | 88 | 1049.3 |
| 20260503222437 | 13 | 74 | 0.0 | 0.0 | 0.00 | 0.00 | 0.00 | 88 | 1049.3 |
| 20260503222428 | 13 | 74 | 0.0 | 0.0 | 0.00 | 0.00 | 0.00 | 88 | 1049.3 |
| 20260503222123 | 13 | 74 | 0.0 | 0.0 | 0.00 | 0.00 | 0.00 | 88 | 1049.3 |
| 20260503222101 | 13 | 74 | 0.0 | 0.0 | 0.00 | 0.00 | 0.00 | 88 | 1049.3 |
| 20260503222001 | 13 | 75 | 0.0 | 0.0 | 0.00 | 0.00 | 0.00 | 88 | 1049.2 |
| 20260503221900 | 13 | 74 | 0.0 | 0.0 | 0.00 | 0.00 | 0.00 | 88 | 1049.2 |
| 20260503221801 | 13 | 74 | 0.0 | 0.0 | 0.00 | 0.00 | 0.00 | 88 | 1049.2 |
| 20260503221659 | 13 | 74 | 0.0 | 0.0 | 0.00 | 0.00 | 0.00 | 88 | 1049.2 |
| 20260503221608 | 13 | 74 | 0.0 | 0.0 | 0.00 | 0.00 | 0.00 | 88 | 1049.3 |
| 20260503221600 | 13 | 74 | 0.0 | 0.0 | 0.00 | 0.00 | 0.00 | 88 | 1049.3 |
| 20260503221501 | 13 | 74 | 0.0 | 0.0 | 0.00 | 0.00 | 0.00 | 88 | 1049.2 |
| 20260503221403 | 13 | 74 | 0.0 | 0.0 | 0.00 | 0.00 | 0.00 | 88 | 1049.2 |
| 20260503221300 | 13 | 73 | 0.0 | 1.6 | 0.00 | 0.00 | 0.00 | 88 | 1049.2 |
| 20260503221200 | 13 | 74 | 0.0 | 1.6 | 0.00 | 0.00 | 0.00 | 88 | 1049.2 |
| 20260503221111 | 13 | 74 | 0.0 | 3.2 | 0.00 | 0.00 | 0.00 | 88 | 1049.2 |
| 20260503221102 | 13 | 74 | 0.0 | 3.2 | 0.00 | 0.00 | 0.00 | 88 | 1049.2 |
| 20260503221000 | 13 | 74 | 0.0 | 3.2 | 0.00 | 0.00 | 0.00 | 88 | 1049.2 |
| 20260503220858 | 13 | 74 | 1.6 | 4.8 | 0.00 | 0.00 | 0.00 | 88 | 1049.2 |
| 20260503220759 | 13 | 73 | 1.6 | 4.8 | 0.00 | 0.00 | 0.00 | 88 | 1049.2 |
| 20260503220658 | 13 | 74 | 1.6 | 4.8 | 0.00 | 0.00 | 0.00 | 88 | 1049.3 |
| 20260503220606 | 13 | 73 | 1.6 | 4.8 | 0.00 | 0.00 | 0.00 | 88 | 1049.3 |
| 20260503220557 | 13 | 73 | 1.6 | 4.8 | 0.00 | 0.00 | 0.00 | 88 | 1049.3 |
| 20260503220458 | 13 | 74 | 1.6 | 4.8 | 0.00 | 0.00 | 0.00 | 88 | 1049.2 |
| 20260503220358 | 13 | 73 | 3.2 | 4.8 | 0.00 | 0.00 | 0.00 | 88 | 1049.3 |
| 20260503220258 | 13 | 73 | 3.2 | 4.8 | 0.00 | 0.00 | 0.00 | 88 | 1049.3 |
| 20260503220247 | 13 | 73 | 1.6 | 4.8 | 0.00 | 0.00 | 0.00 | 87 | 1049.3 |
| 20260503220238 | 13 | 74 | 1.6 | 4.8 | 0.00 | 0.00 | 0.00 | 87 | 1049.4 |
| 20260503220234 | 13 | 74 | 1.6 | 4.8 | 0.00 | 0.00 | 0.00 | 87 | 1049.4 |
| 20260503220224 | 14 | 73 | 1.6 | 4.8 | 0.00 | 0.00 | 0.00 | 87 | 1049.4 |
| 20260503220215 | 14 | 74 | 1.6 | 4.8 | 0.00 | 0.00 | 0.00 | 87 | 1049.4 |
| 20260503220202 | 14 | 74 | 1.6 | 4.8 | 0.00 | 0.00 | 0.00 | 87 | 1049.4 |
| 20260503220152 | 14 | 74 | 1.6 | 4.8 | 0.00 | 0.00 | 0.00 | 87 | 1049.4 |
| 20260503215424 | 14 | 74 | 0.0 | 1.6 | 0.00 | 0.00 | 0.00 | 87 | 1049.3 |
| 20260503215416 | 14 | 74 | 0.0 | 1.6 | 0.00 | 0.00 | 0.00 | 87 | 1049.2 |
| 20260503215106 | 14 | 73 | 0.0 | 1.6 | 0.00 | 0.00 | 0.00 | 87 | 1049.1 |
| 20260503215058 | 14 | 73 | 0.0 | 1.6 | 0.00 | 0.00 | 0.00 | 87 | 1049.1 |
| 20260503214950 | 14 | 74 | 0.0 | 3.2 | 0.00 | 0.00 | 0.00 | 87 | 1049.1 |
| 20260503214921 | 14 | 74 | 1.6 | 3.2 | 0.00 | 0.00 | 0.00 | 87 | 1049.1 |
| 20260503214914 | 14 | 73 | 1.6 | 3.2 | 0.00 | 0.00 | 0.00 | 87 | 1049.1 |
| 20260503214859 | 14 | 73 | 1.6 | 3.2 | 0.00 | 0.00 | 0.00 | 87 | 1049.2 |
| 20260503214631 | 14 | 74 | 1.6 | 3.2 | 0.00 | 0.00 | 0.00 | 87 | 1049.2 |
| 20260503214615 | 14 | 74 | 1.6 | 3.2 | 0.00 | 0.00 | 0.00 | 87 | 1049.2 |
| 20260503214339 | 14 | 74 | 1.6 | 4.8 | 0.00 | 0.00 | 0.00 | 87 | 1049.2 |
| 20260503214322 | 14 | 74 | 1.6 | 4.8 | 0.00 | 0.00 | 0.00 | 87 | 1049.2 |
| 20260503214042 | 14 | 74 | 1.6 | 4.8 | 0.00 | 0.00 | 0.00 | 87 | 1049.2 |
| 20260503213937 | 14 | 74 | 1.6 | 4.8 | 0.00 | 0.00 | 0.00 | 87 | 1049.3 |
| 20260503213837 | 14 | 74 | 1.6 | 4.8 | 0.00 | 0.00 | 0.00 | 87 | 1049.2 |
| 20260503213739 | 14 | 73 | 1.6 | 4.8 | 0.00 | 0.00 | 0.00 | 87 | 1049.2 |
| 20260503213650 | 14 | 73 | 1.6 | 4.8 | 0.00 | 0.00 | 0.00 | 87 | 1049.2 |
| 20260503213639 | 14 | 74 | 1.6 | 6.4 | 0.00 | 0.00 | 0.00 | 87 | 1049.2 |
| 20260503213635 | 14 | 75 | 1.6 | 6.4 | 0.00 | 0.00 | 0.00 | 87 | 1049.2 |
| 20260503213618 | 14 | 73 | 1.6 | 6.4 | 0.00 | 0.00 | 0.00 | 87 | 1049.2 |
| 20260503213610 | 14 | 74 | 1.6 | 6.4 | 0.00 | 0.00 | 0.00 | 87 | 1049.2 |
| 20260503213338 | 14 | 74 | 1.6 | 6.4 | 0.00 | 0.00 | 0.00 | 87 | 1049.2 |
| 20260503213115 | 14 | 74 | 1.6 | 6.4 | 0.00 | 0.00 | 0.00 | 87 | 1049.2 |
| 20260503213058 | 14 | 74 | 1.6 | 6.4 | 0.00 | 0.00 | 0.00 | 87 | 1049.2 |
| 20260503212740 | 14 | 73 | 1.6 | 6.4 | 0.00 | 0.00 | 0.00 | 87 | 1049.2 |
| 20260503212729 | 14 | 74 | 1.6 | 6.4 | 0.00 | 0.00 | 0.00 | 87 | 1049.3 |
| 20260503212719 | 14 | 74 | 1.6 | 4.8 | 0.00 | 0.00 | 0.00 | 87 | 1049.3 |
| 20260503212715 | 14 | 74 | 1.6 | 3.2 | 0.00 | 0.00 | 0.00 | 87 | 1049.3 |
| 20260503212344 | 14 | 74 | 1.6 | 3.2 | 0.00 | 0.00 | 0.00 | 87 | 1049.3 |
| 20260503212336 | 14 | 74 | 1.6 | 3.2 | 0.00 | 0.00 | 0.00 | 87 | 1049.3 |
| 20260503212324 | 14 | 74 | 1.6 | 3.2 | 0.00 | 0.00 | 0.00 | 86 | 1049.3 |
| 20260503212031 | 14 | 73 | 1.6 | 3.2 | 0.00 | 0.00 | 0.00 | 86 | 1049.3 |
| 20260503211959 | 14 | 74 | 1.6 | 4.8 | 0.00 | 0.00 | 0.00 | 86 | 1049.3 |
| 20260503211951 | 14 | 74 | 1.6 | 6.4 | 0.00 | 0.00 | 0.00 | 86 | 1049.3 |
| 20260503211628 | 14 | 74 | 1.6 | 6.4 | 0.00 | 0.00 | 0.00 | 87 | 1049.3 |
| 20260503211601 | 14 | 73 | 1.6 | 6.4 | 0.00 | 0.00 | 0.00 | 87 | 1049.3 |
| 20260503211529 | 14 | 74 | 1.6 | 6.4 | 0.00 | 0.00 | 0.00 | 87 | 1049.3 |
| 20260503211429 | 14 | 74 | 1.6 | 6.4 | 0.00 | 0.00 | 0.00 | 87 | 1049.3 |
| 20260503211327 | 14 | 74 | 1.6 | 6.4 | 0.00 | 0.00 | 0.00 | 87 | 1049.2 |
| 20260503211223 | 14 | 74 | 1.6 | 6.4 | 0.00 | 0.00 | 0.00 | 86 | 1049.2 |
| 20260503211101 | 14 | 74 | 1.6 | 6.4 | 0.00 | 0.00 | 0.00 | 86 | 1049.2 |
| 20260503211030 | 14 | 74 | 1.6 | 6.4 | 0.00 | 0.00 | 0.00 | 86 | 1049.2 |
| 20260503210923 | 14 | 74 | 1.6 | 6.4 | 0.00 | 0.00 | 0.00 | 86 | 1049.2 |
| 20260503210823 | 14 | 76 | 1.6 | 6.4 | 0.00 | 0.00 | 0.00 | 86 | 1049.2 |
| 20260503210726 | 14 | 76 | 3.2 | 6.4 | 0.00 | 0.00 | 0.00 | 86 | 1049.2 |
| 20260503210645 | 14 | 76 | 3.2 | 6.4 | 0.00 | 0.00 | 0.00 | 86 | 1049.2 |
| 20260503210634 | 14 | 77 | 3.2 | 6.4 | 0.00 | 0.00 | 0.00 | 86 | 1049.2 |
| 20260503210630 | 14 | 76 | 3.2 | 6.4 | 0.00 | 0.00 | 0.00 | 86 | 1049.2 |
| 20260503210612 | 14 | 76 | 3.2 | 6.4 | 0.00 | 0.00 | 0.00 | 86 | 1049.3 |
| 20260503210349 | 14 | 76 | 1.6 | 6.4 | 0.00 | 0.00 | 0.00 | 86 | 1049.5 |
| 20260503210114 | 14 | 76 | 1.6 | 6.4 | 0.00 | 0.00 | 0.00 | 86 | 1049.5 |
| 20260503210109 | 14 | 77 | 1.6 | 6.4 | 0.00 | 0.00 | 0.00 | 86 | 1049.5 |
| 20260503210045 | 14 | 77 | 1.6 | 6.4 | 0.00 | 0.00 | 0.00 | 86 | 1049.5 |
| 20260503205719 | 14 | 77 | 1.6 | 4.8 | 0.00 | 0.00 | 0.00 | 86 | 1049.5 |
| 20260503205618 | 14 | 77 | 1.6 | 3.2 | 0.00 | 0.00 | 0.00 | 86 | 1049.5 |
| 20260503205557 | 14 | 77 | 1.6 | 3.2 | 0.00 | 0.00 | 0.00 | 86 | 1049.5 |
| 20260503205517 | 14 | 77 | 1.6 | 4.8 | 0.00 | 0.00 | 0.00 | 86 | 1049.4 |
| 20260503205417 | 14 | 77 | 1.6 | 4.8 | 0.00 | 0.00 | 0.00 | 86 | 1049.5 |
| 20260503205320 | 14 | 77 | 1.6 | 4.8 | 0.00 | 0.00 | 0.00 | 86 | 1049.5 |
| 20260503205218 | 14 | 77 | 1.6 | 4.8 | 0.00 | 0.00 | 0.00 | 86 | 1049.4 |
| 20260503205119 | 14 | 77 | 1.6 | 4.8 | 0.00 | 0.00 | 0.00 | 85 | 1049.4 |
| 20260503205057 | 14 | 77 | 1.6 | 4.8 | 0.00 | 0.00 | 0.00 | 85 | 1049.4 |
| 20260503205044 | 14 | 77 | 1.6 | 4.8 | 0.00 | 0.00 | 0.00 | 85 | 1049.5 |
| 20260503204707 | 14 | 77 | 1.6 | 4.8 | 0.00 | 0.00 | 0.00 | 85 | 1049.5 |
| 20260503204606 | 14 | 77 | 1.6 | 4.8 | 0.00 | 0.00 | 0.00 | 85 | 1049.5 |
| 20260503204554 | 14 | 77 | 1.6 | 4.8 | 0.00 | 0.00 | 0.00 | 85 | 1049.5 |
| 20260503204506 | 14 | 77 | 0.0 | 4.8 | 0.00 | 0.00 | 0.00 | 85 | 1049.5 |
| 20260503204404 | 14 | 77 | 0.0 | 3.2 | 0.00 | 0.00 | 0.00 | 85 | 1049.5 |
| 20260503204304 | 14 | 77 | 0.0 | 3.2 | 0.00 | 0.00 | 0.00 | 85 | 1049.5 |
| 20260503204204 | 14 | 77 | 0.0 | 3.2 | 0.00 | 0.00 | 0.00 | 85 | 1049.5 |
| 20260503204124 | 14 | 77 | 0.0 | 3.2 | 0.00 | 0.00 | 0.00 | 85 | 1049.5 |
| 20260503204116 | 14 | 77 | 0.0 | 3.2 | 0.00 | 0.00 | 0.00 | 85 | 1049.5 |
| 20260503204110 | 14 | 77 | 0.0 | 3.2 | 0.00 | 0.00 | 0.00 | 85 | 1049.4 |
| 20260503204055 | 14 | 77 | 0.0 | 3.2 | 0.00 | 0.00 | 0.00 | 85 | 1049.4 |
| 20260503204046 | 14 | 77 | 1.6 | 3.2 | 0.00 | 0.00 | 0.00 | 85 | 1049.5 |
| 20260503203554 | 14 | 77 | 1.6 | 3.2 | 0.00 | 0.00 | 0.00 | 85 | 1049.5 |
| 20260503203535 | 14 | 77 | 1.6 | 3.2 | 0.00 | 0.00 | 0.00 | 85 | 1049.6 |
| 20260503203525 | 14 | 77 | 1.6 | 3.2 | 0.00 | 0.00 | 0.00 | 85 | 1049.5 |
| 20260503203204 | 14 | 77 | 1.6 | 3.2 | 0.00 | 0.00 | 0.00 | 84 | 1049.5 |
| 20260503203104 | 14 | 77 | 1.6 | 3.2 | 0.00 | 0.00 | 0.00 | 84 | 1049.5 |
| 20260503203054 | 14 | 77 | 1.6 | 3.2 | 0.00 | 0.00 | 0.00 | 84 | 1049.5 |
| 20260503203007 | 14 | 77 | 1.6 | 3.2 | 0.00 | 0.00 | 0.00 | 84 | 1049.6 |
| 20260503202903 | 14 | 77 | 1.6 | 3.2 | 0.00 | 0.00 | 0.00 | 84 | 1049.6 |
| 20260503202759 | 14 | 77 | 1.6 | 3.2 | 0.00 | 0.00 | 0.00 | 84 | 1049.5 |
| 20260503202734 | 14 | 77 | 1.6 | 4.8 | 0.00 | 0.00 | 0.00 | 84 | 1049.6 |
| 20260503202721 | 14 | 77 | 1.6 | 4.8 | 0.00 | 0.00 | 0.00 | 84 | 1049.6 |
| 20260503202433 | 14 | 77 | 3.2 | 4.8 | 0.00 | 0.00 | 0.00 | 84 | 1049.6 |
| 20260503202426 | 14 | 77 | 3.2 | 4.8 | 0.00 | 0.00 | 0.00 | 84 | 1049.6 |
| 20260503202413 | 14 | 77 | 3.2 | 4.8 | 0.00 | 0.00 | 0.00 | 84 | 1049.6 |
| 20260503202359 | 14 | 77 | 1.6 | 4.8 | 0.00 | 0.00 | 0.00 | 84 | 1049.6 |
| 20260503202349 | 14 | 77 | 1.6 | 4.8 | 0.00 | 0.00 | 0.00 | 84 | 1049.6 |
| 20260503202120 | 14 | 77 | 1.6 | 4.8 | 0.00 | 0.00 | 0.00 | 84 | 1049.7 |
| 20260503201618 | 14 | 77 | 1.6 | 3.2 | 0.00 | 0.00 | 0.00 | 84 | 1049.6 |
| 20260503201607 | 14 | 77 | 1.6 | 3.2 | 0.00 | 0.00 | 0.00 | 84 | 1049.6 |
| 20260503201334 | 14 | 77 | 1.6 | 3.2 | 0.00 | 0.00 | 0.00 | 84 | 1049.6 |
| 20260503201319 | 14 | 77 | 1.6 | 3.2 | 0.00 | 0.00 | 0.00 | 84 | 1049.6 |
| 20260503201039 | 14 | 77 | 1.6 | 3.2 | 0.00 | 0.00 | 0.00 | 83 | 1049.6 |
| 20260503200936 | 14 | 77 | 1.6 | 3.2 | 0.00 | 0.00 | 0.00 | 83 | 1049.6 |
| 20260503200837 | 14 | 77 | 1.6 | 3.2 | 0.00 | 0.00 | 0.00 | 83 | 1049.6 |
| 20260503200737 | 14 | 77 | 1.6 | 3.2 | 0.00 | 0.00 | 0.00 | 83 | 1049.7 |
| 20260503200640 | 14 | 77 | 1.6 | 3.2 | 0.00 | 0.00 | 0.00 | 83 | 1049.7 |
| 20260503200536 | 14 | 77 | 1.6 | 3.2 | 0.00 | 0.00 | 0.00 | 83 | 1049.7 |
| 20260503200435 | 15 | 77 | 1.6 | 3.2 | 0.00 | 0.00 | 0.00 | 83 | 1049.7 |
| 20260503200335 | 15 | 77 | 1.6 | 3.2 | 0.00 | 0.00 | 0.00 | 83 | 1049.6 |
| 20260503200232 | 15 | 77 | 1.6 | 3.2 | 0.00 | 0.00 | 0.00 | 83 | 1049.7 |
| 20260503200154 | 15 | 77 | 1.6 | 4.8 | 0.00 | 0.00 | 0.00 | 83 | 1049.6 |
| 20260503200139 | 15 | 77 | 1.6 | 4.8 | 0.00 | 0.00 | 0.00 | 83 | 1049.6 |
| 20260503200128 | 15 | 77 | 1.6 | 4.8 | 0.00 | 0.00 | 0.00 | 83 | 1049.6 |
| 20260503200120 | 15 | 77 | 1.6 | 4.8 | 0.00 | 0.00 | 0.00 | 83 | 1049.6 |
| 20260503200112 | 15 | 77 | 1.6 | 4.8 | 0.00 | 0.00 | 0.00 | 83 | 1049.6 |
| 20260503200058 | 15 | 77 | 1.6 | 4.8 | 0.00 | 0.00 | 0.00 | 83 | 1049.6 |
| 20260503195612 | 15 | 77 | 1.6 | 4.8 | 0.00 | 0.00 | 0.00 | 82 | 1049.7 |
| 20260503195602 | 15 | 77 | 1.6 | 4.8 | 0.00 | 0.00 | 0.00 | 82 | 1049.6 |
| 20260503195331 | 15 | 77 | 1.6 | 4.8 | 0.00 | 0.00 | 0.00 | 82 | 1049.7 |
| 20260503195103 | 15 | 77 | 1.6 | 4.8 | 0.00 | 0.00 | 0.00 | 82 | 1049.7 |
| 20260503195052 | 15 | 77 | 1.6 | 4.8 | 0.00 | 0.00 | 0.00 | 82 | 1049.7 |
| 20260503194726 | 15 | 77 | 0.0 | 4.8 | 0.00 | 0.00 | 0.00 | 82 | 1049.6 |
| 20260503194630 | 15 | 77 | 0.0 | 3.2 | 0.00 | 0.00 | 0.00 | 82 | 1049.7 |
| 20260503194606 | 15 | 77 | 0.0 | 3.2 | 0.00 | 0.00 | 0.00 | 82 | 1049.7 |
| 20260503194557 | 15 | 77 | 0.0 | 0.0 | 0.00 | 0.00 | 0.00 | 82 | 1049.6 |
| 20260503194544 | 15 | 77 | 0.0 | 0.0 | 0.00 | 0.00 | 0.00 | 82 | 1049.6 |
| 20260503194312 | 15 | 77 | 0.0 | 0.0 | 0.00 | 0.00 | 0.00 | 82 | 1049.6 |
| 20260503194303 | 15 | 77 | 0.0 | 0.0 | 0.00 | 0.00 | 0.00 | 81 | 1049.6 |
| 20260503194244 | 15 | 77 | 0.0 | 0.0 | 0.00 | 0.00 | 0.00 | 81 | 1049.6 |
| 20260503194009 | 15 | 78 | 0.0 | 1.6 | 0.00 | 0.00 | 0.00 | 81 | 1049.5 |
| 20260503194001 | 15 | 77 | 0.0 | 1.6 | 0.00 | 0.00 | 0.00 | 81 | 1049.5 |
| 20260503193952 | 15 | 77 | 0.0 | 1.6 | 0.00 | 0.00 | 0.00 | 81 | 1049.5 |
| 20260503193416 | 15 | 77 | 0.0 | 3.2 | 0.00 | 0.00 | 0.00 | 81 | 1049.5 |
| 20260503193315 | 15 | 77 | 0.0 | 3.2 | 0.00 | 0.00 | 0.00 | 81 | 1049.5 |
| 20260503193245 | 15 | 77 | 0.0 | 3.2 | 0.00 | 0.00 | 0.00 | 81 | 1049.5 |
| 20260503193238 | 15 | 77 | 0.0 | 3.2 | 0.00 | 0.00 | 0.00 | 81 | 1049.5 |
| 20260503193227 | 15 | 77 | 0.0 | 3.2 | 0.00 | 0.00 | 0.00 | 81 | 1049.5 |
| 20260503192940 | 15 | 77 | 0.0 | 3.2 | 0.00 | 0.00 | 0.00 | 81 | 1049.5 |
| 20260503192931 | 15 | 77 | 0.0 | 3.2 | 0.00 | 0.00 | 0.00 | 81 | 1049.5 |
| 20260503192609 | 15 | 77 | 0.0 | 3.2 | 0.00 | 0.00 | 0.00 | 81 | 1049.5 |
| 20260503192546 | 15 | 77 | 0.0 | 1.6 | 0.00 | 0.00 | 0.00 | 81 | 1049.4 |
| 20260503192509 | 15 | 77 | 0.0 | 1.6 | 0.00 | 0.00 | 0.00 | 81 | 1049.4 |
| 20260503192406 | 15 | 77 | 0.0 | 1.6 | 0.00 | 0.00 | 0.00 | 81 | 1049.4 |
| 20260503192308 | 15 | 77 | 0.0 | 1.6 | 0.00 | 0.00 | 0.00 | 81 | 1049.4 |
| 20260503192205 | 15 | 77 | 0.0 | 1.6 | 0.00 | 0.00 | 0.00 | 81 | 1049.4 |
| 20260503192105 | 15 | 77 | 0.0 | 1.6 | 0.00 | 0.00 | 0.00 | 81 | 1049.4 |
| 20260503192040 | 15 | 77 | 0.0 | 1.6 | 0.00 | 0.00 | 0.00 | 81 | 1049.4 |
| 20260503192002 | 15 | 77 | 0.0 | 1.6 | 0.00 | 0.00 | 0.00 | 81 | 1049.4 |
| 20260503191900 | 15 | 77 | 0.0 | 1.6 | 0.00 | 0.00 | 0.00 | 81 | 1049.4 |
| 20260503191801 | 15 | 77 | 0.0 | 1.6 | 0.00 | 0.00 | 0.00 | 81 | 1049.3 |
| 20260503191659 | 15 | 77 | 0.0 | 4.8 | 0.00 | 0.00 | 0.00 | 80 | 1049.3 |
| 20260503191537 | 15 | 77 | 0.0 | 4.8 | 0.00 | 0.00 | 0.00 | 80 | 1049.3 |
| 20260503191459 | 15 | 77 | 0.0 | 4.8 | 0.00 | 0.00 | 0.00 | 80 | 1049.3 |
| 20260503191354 | 15 | 77 | 1.6 | 4.8 | 0.00 | 0.00 | 0.00 | 80 | 1049.3 |
| 20260503191249 | 15 | 77 | 1.6 | 4.8 | 0.00 | 0.00 | 0.00 | 80 | 1049.3 |
| 20260503191227 | 15 | 77 | 1.6 | 4.8 | 0.00 | 0.00 | 0.00 | 80 | 1049.3 |
| 20260503191210 | 15 | 77 | 1.6 | 4.8 | 0.00 | 0.00 | 0.00 | 80 | 1049.3 |
| 20260503190844 | 15 | 77 | 1.6 | 4.8 | 0.00 | 0.00 | 0.00 | 79 | 1049.2 |
| 20260503190740 | 15 | 77 | 1.6 | 4.8 | 0.00 | 0.00 | 0.00 | 79 | 1049.2 |
| 20260503190640 | 15 | 77 | 1.6 | 3.2 | 0.00 | 0.00 | 0.00 | 79 | 1049.2 |
| 20260503190539 | 15 | 77 | 1.6 | 3.2 | 0.00 | 0.00 | 0.00 | 79 | 1049.3 |
| 20260503190440 | 15 | 77 | 0.0 | 3.2 | 0.00 | 0.00 | 0.00 | 79 | 1049.2 |
| 20260503190340 | 15 | 77 | 1.6 | 3.2 | 0.00 | 0.00 | 0.00 | 80 | 1049.2 |
| 20260503190240 | 15 | 77 | 1.6 | 3.2 | 0.00 | 0.00 | 0.00 | 79 | 1049.2 |
| 20260503190138 | 15 | 77 | 1.6 | 3.2 | 0.00 | 0.00 | 0.00 | 79 | 1049.2 |
| 20260503190034 | 15 | 77 | 1.6 | 3.2 | 0.00 | 0.00 | 0.00 | 79 | 1049.2 |
| 20260503185936 | 15 | 77 | 1.6 | 3.2 | 0.00 | 0.00 | 0.00 | 79 | 1049.2 |
| 20260503185836 | 15 | 77 | 1.6 | 3.2 | 0.00 | 0.00 | 0.00 | 79 | 1049.2 |
| 20260503185735 | 15 | 77 | 1.6 | 4.8 | 0.00 | 0.00 | 0.00 | 79 | 1049.2 |
| 20260503185707 | 15 | 77 | 1.6 | 6.4 | 0.00 | 0.00 | 0.00 | 79 | 1049.2 |
| 20260503185652 | 15 | 77 | 1.6 | 6.4 | 0.00 | 0.00 | 0.00 | 79 | 1049.2 |
| 20260503185639 | 15 | 77 | 1.6 | 6.4 | 0.00 | 0.00 | 0.00 | 79 | 1049.2 |
| 20260503185625 | 15 | 77 | 3.2 | 6.4 | 0.00 | 0.00 | 0.00 | 79 | 1049.1 |
| 20260503185400 | 15 | 77 | 3.2 | 6.4 | 0.00 | 0.00 | 0.00 | 79 | 1049.1 |
| 20260503185345 | 15 | 77 | 3.2 | 6.4 | 0.00 | 0.00 | 0.00 | 78 | 1049.1 |
| 20260503185335 | 15 | 77 | 3.2 | 6.4 | 0.00 | 0.00 | 0.00 | 78 | 1049.1 |
| 20260503185323 | 15 | 77 | 3.2 | 6.4 | 0.00 | 0.00 | 0.00 | 78 | 1049.1 |
| 20260503185316 | 15 | 77 | 1.6 | 6.4 | 0.00 | 0.00 | 0.00 | 78 | 1049.1 |
| 20260503184828 | 15 | 77 | 3.2 | 6.4 | 0.00 | 0.00 | 0.00 | 78 | 1049.1 |
| 20260503184820 | 15 | 77 | 3.2 | 6.4 | 0.00 | 0.00 | 0.00 | 78 | 1049.1 |
| 20260503184807 | 15 | 77 | 3.2 | 6.4 | 0.00 | 0.00 | 0.00 | 78 | 1049.2 |
| 20260503184540 | 15 | 77 | 3.2 | 6.4 | 0.00 | 0.00 | 0.00 | 78 | 1049.1 |
| 20260503184257 | 15 | 77 | 3.2 | 8.0 | 0.00 | 0.00 | 0.00 | 78 | 1049.1 |
| 20260503184021 | 15 | 77 | 3.2 | 8.0 | 0.00 | 0.00 | 0.00 | 78 | 1049.1 |
| 20260503183751 | 15 | 77 | 3.2 | 8.0 | 0.00 | 0.00 | 0.00 | 78 | 1049.1 |
| 20260503183739 | 15 | 77 | 3.2 | 8.0 | 0.00 | 0.00 | 0.00 | 78 | 1049.1 |
| 20260503183424 | 15 | 77 | 3.2 | 8.0 | 0.00 | 0.00 | 0.00 | 78 | 1049.1 |
| 20260503183324 | 15 | 77 | 3.2 | 8.0 | 0.00 | 0.00 | 0.00 | 77 | 1049.1 |
| 20260503183303 | 15 | 77 | 3.2 | 8.0 | 0.00 | 0.00 | 0.00 | 77 | 1049.1 |
| 20260503183249 | 15 | 76 | 3.2 | 6.4 | 0.00 | 0.00 | 0.00 | 77 | 1049.1 |
| 20260503183022 | 15 | 75 | 3.2 | 8.0 | 0.00 | 0.00 | 0.00 | 77 | 1049.1 |
| 20260503182920 | 15 | 75 | 3.2 | 8.0 | 0.00 | 0.00 | 0.00 | 77 | 1049.1 |
| 20260503182820 | 15 | 74 | 3.2 | 8.0 | 0.00 | 0.00 | 0.00 | 77 | 1049.1 |
| 20260503182720 | 15 | 75 | 3.2 | 8.0 | 0.00 | 0.00 | 0.00 | 77 | 1049.1 |
| 20260503182620 | 15 | 75 | 3.2 | 8.0 | 0.00 | 0.00 | 0.00 | 77 | 1049.1 |
| 20260503182520 | 15 | 74 | 3.2 | 8.0 | 0.00 | 0.00 | 0.00 | 77 | 1049.1 |
| 20260503182418 | 15 | 74 | 3.2 | 8.0 | 0.00 | 0.00 | 0.00 | 77 | 1049.1 |
| 20260503182313 | 15 | 75 | 3.2 | 8.0 | 0.00 | 0.00 | 0.00 | 77 | 1049.1 |
| 20260503182214 | 15 | 75 | 3.2 | 8.0 | 0.00 | 0.00 | 0.00 | 77 | 1049.1 |
| 20260503182115 | 15 | 74 | 3.2 | 8.0 | 0.00 | 0.00 | 0.00 | 77 | 1049.1 |
| 20260503182014 | 15 | 75 | 3.2 | 6.4 | 0.00 | 0.00 | 0.00 | 77 | 1049.0 |
| 20260503181912 | 15 | 76 | 3.2 | 8.0 | 0.00 | 0.00 | 0.00 | 77 | 1049.0 |
| 20260503181806 | 15 | 75 | 4.8 | 12.9 | 0.00 | 0.00 | 0.00 | 78 | 1049.1 |
| 20260503181706 | 15 | 76 | 4.8 | 12.9 | 0.00 | 0.00 | 0.00 | 77 | 1049.1 |
| 20260503181606 | 15 | 75 | 4.8 | 12.9 | 0.00 | 0.00 | 0.00 | 77 | 1049.1 |
| 20260503181506 | 15 | 76 | 4.8 | 12.9 | 0.00 | 0.00 | 0.00 | 77 | 1049.1 |
| 20260503181406 | 15 | 76 | 4.8 | 12.9 | 0.00 | 0.00 | 0.00 | 77 | 1049.1 |
| 20260503181325 | 15 | 76 | 3.2 | 12.9 | 0.00 | 0.00 | 0.00 | 77 | 1049.1 |
| 20260503181318 | 15 | 77 | 4.8 | 12.9 | 0.00 | 0.00 | 0.00 | 77 | 1049.1 |
| 20260503181301 | 15 | 76 | 4.8 | 12.9 | 0.00 | 0.00 | 0.00 | 77 | 1049.1 |
| 20260503181005 | 15 | 76 | 4.8 | 12.9 | 0.00 | 0.00 | 0.00 | 78 | 1049.1 |
| 20260503180901 | 15 | 77 | 3.2 | 12.9 | 0.00 | 0.00 | 0.00 | 78 | 1049.1 |
| 20260503180823 | 15 | 96 | 3.2 | 6.4 | 0.00 | 0.00 | 0.00 | 78 | 1049.1 |
| 20260503180813 | 15 | 97 | 3.2 | 6.4 | 0.00 | 0.00 | 0.00 | 78 | 1049.1 |
| 20260503180801 | 15 | 96 | 3.2 | 6.4 | 0.00 | 0.00 | 0.00 | 78 | 1049.2 |
| 20260503180749 | 15 | 97 | 3.2 | 6.4 | 0.00 | 0.00 | 0.00 | 79 | 1049.2 |
| 20260503180524 | 15 | 97 | 1.6 | 6.4 | 0.00 | 0.00 | 0.00 | 79 | 1049.2 |
| 20260503180201 | 15 | 99 | 1.6 | 6.4 | 0.00 | 0.00 | 0.00 | 79 | 1049.2 |
| 20260503180032 | 15 | 98 | 1.6 | 6.4 | 0.00 | 0.00 | 0.00 | 79 | 1049.2 |
| 20260503180005 | 15 | 97 | 1.6 | 4.8 | 0.00 | 0.00 | 0.00 | 79 | 1049.2 |
| 20260503175901 | 15 | 97 | 3.2 | 9.7 | 0.00 | 0.00 | 0.00 | 79 | 1049.3 |
| 20260503175802 | 15 | 98 | 3.2 | 11.3 | 0.00 | 0.00 | 0.00 | 79 | 1049.3 |
| 20260503175701 | 15 | 97 | 3.2 | 11.3 | 0.00 | 0.00 | 0.00 | 79 | 1049.3 |
| 20260503175605 | 15 | 97 | 4.8 | 11.3 | 0.00 | 0.00 | 0.00 | 79 | 1049.3 |
| 20260503175549 | 15 | 97 | 4.8 | 11.3 | 0.00 | 0.00 | 0.00 | 79 | 1049.2 |
| 20260503175534 | 15 | 97 | 4.8 | 11.3 | 0.00 | 0.00 | 0.00 | 79 | 1049.2 |
| 20260503175307 | 15 | 97 | 4.8 | 11.3 | 0.00 | 0.00 | 0.00 | 79 | 1049.1 |
| 20260503175253 | 15 | 97 | 4.8 | 11.3 | 0.00 | 0.00 | 0.00 | 79 | 1049.1 |
| 20260503175004 | 15 | 97 | 4.8 | 11.3 | 0.00 | 0.00 | 0.00 | 79 | 1049.1 |
| 20260503174931 | 15 | 97 | 4.8 | 11.3 | 0.00 | 0.00 | 0.00 | 79 | 1049.1 |
| 20260503174924 | 15 | 98 | 4.8 | 11.3 | 0.00 | 0.00 | 0.00 | 79 | 1049.2 |
| 20260503174602 | 15 | 103 | 4.8 | 11.3 | 0.00 | 0.00 | 0.00 | 79 | 1049.2 |
| 20260503174504 | 15 | 103 | 4.8 | 11.3 | 0.00 | 0.00 | 0.00 | 79 | 1049.1 |
| 20260503174400 | 15 | 103 | 4.8 | 11.3 | 0.00 | 0.00 | 0.00 | 79 | 1049.2 |
| 20260503174300 | 15 | 104 | 4.8 | 11.3 | 0.00 | 0.00 | 0.00 | 79 | 1049.1 |
| 20260503174200 | 15 | 103 | 4.8 | 11.3 | 0.00 | 0.00 | 0.00 | 79 | 1049.2 |
| 20260503174059 | 16 | 103 | 4.8 | 11.3 | 0.00 | 0.00 | 0.00 | 80 | 1049.2 |
| 20260503174033 | 15 | 104 | 4.8 | 11.3 | 0.00 | 0.00 | 0.00 | 80 | 1049.2 |
| 20260503173958 | 15 | 103 | 4.8 | 11.3 | 0.00 | 0.00 | 0.00 | 80 | 1049.2 |
| 20260503173858 | 15 | 104 | 4.8 | 11.3 | 0.00 | 0.00 | 0.00 | 79 | 1049.2 |
| 20260503173817 | 15 | 103 | 4.8 | 11.3 | 0.00 | 0.00 | 0.00 | 79 | 1049.2 |
| 20260503173807 | 16 | 112 | 4.8 | 11.3 | 0.00 | 0.00 | 0.00 | 80 | 1049.2 |
| 20260503173755 | 15 | 112 | 4.8 | 11.3 | 0.00 | 0.00 | 0.00 | 80 | 1049.2 |
| 20260503173745 | 15 | 112 | 6.4 | 11.3 | 0.00 | 0.00 | 0.00 | 80 | 1049.2 |
| 20260503173517 | 15 | 112 | 4.8 | 11.3 | 0.00 | 0.00 | 0.00 | 80 | 1049.2 |
| 20260503173152 | 15 | 112 | 4.8 | 11.3 | 0.00 | 0.00 | 0.00 | 80 | 1049.2 |
| 20260503173029 | 15 | 112 | 4.8 | 11.3 | 0.00 | 0.00 | 0.00 | 80 | 1049.2 |
| 20260503172952 | 16 | 112 | 4.8 | 11.3 | 0.00 | 0.00 | 0.00 | 80 | 1049.2 |
| 20260503172850 | 15 | 112 | 4.8 | 11.3 | 0.00 | 0.00 | 0.00 | 80 | 1049.2 |
| 20260503172748 | 16 | 112 | 3.2 | 11.3 | 0.00 | 0.00 | 0.00 | 80 | 1049.2 |
| 20260503172648 | 16 | 115 | 3.2 | 9.7 | 0.00 | 0.00 | 0.00 | 80 | 1049.2 |
| 20260503172628 | 16 | 114 | 3.2 | 9.7 | 0.00 | 0.00 | 0.00 | 80 | 1049.2 |
| 20260503172621 | 16 | 116 | 3.2 | 11.3 | 0.00 | 0.00 | 0.00 | 80 | 1049.2 |
| 20260503172610 | 16 | 114 | 3.2 | 12.9 | 0.00 | 0.00 | 0.00 | 80 | 1049.2 |
| 20260503172248 | 16 | 114 | 4.8 | 12.9 | 0.00 | 0.00 | 0.00 | 80 | 1049.0 |
| 20260503172141 | 16 | 114 | 4.8 | 12.9 | 0.00 | 0.00 | 0.00 | 80 | 1049.0 |
| 20260503172029 | 16 | 114 | 4.8 | 12.9 | 0.00 | 0.00 | 0.00 | 80 | 1048.8 |
| 20260503171943 | 16 | 114 | 4.8 | 12.9 | 0.00 | 0.00 | 0.00 | 80 | 1048.7 |
| 20260503171842 | 16 | 114 | 4.8 | 12.9 | 0.00 | 0.00 | 0.00 | 80 | 1048.7 |
| 20260503171800 | 16 | 114 | 6.4 | 12.9 | 0.00 | 0.00 | 0.00 | 80 | 1048.7 |
| 20260503171751 | 16 | 114 | 6.4 | 16.1 | 0.00 | 0.00 | 0.00 | 80 | 1048.7 |
| 20260503171733 | 16 | 114 | 6.4 | 16.1 | 0.00 | 0.00 | 0.00 | 80 | 1048.7 |
| 20260503171716 | 16 | 113 | 6.4 | 16.1 | 0.00 | 0.00 | 0.00 | 80 | 1048.7 |
| 20260503171132 | 16 | 114 | 6.4 | 16.1 | 0.00 | 0.00 | 0.00 | 80 | 1048.7 |
| 20260503171029 | 16 | 125 | 6.4 | 16.1 | 0.00 | 0.00 | 0.00 | 80 | 1048.7 |
| 20260503170932 | 16 | 125 | 8.0 | 16.1 | 0.00 | 0.00 | 0.00 | 80 | 1048.7 |
| 20260503170832 | 16 | 127 | 8.0 | 16.1 | 0.00 | 0.00 | 0.00 | 79 | 1048.7 |
| 20260503170808 | 16 | 117 | 8.0 | 16.1 | 0.00 | 0.00 | 0.00 | 80 | 1048.7 |
| 20260503170759 | 16 | 154 | 8.0 | 14.5 | 0.00 | 0.00 | 0.00 | 80 | 1048.7 |
| 20260503170746 | 16 | 102 | 8.0 | 16.1 | 0.00 | 0.00 | 0.00 | 80 | 1048.7 |
| 20260503170501 | 16 | 102 | 9.7 | 16.1 | 0.00 | 0.00 | 0.00 | 80 | 1048.7 |
| 20260503170454 | 16 | 102 | 9.7 | 16.1 | 0.00 | 0.00 | 0.00 | 79 | 1048.7 |
| 20260503170129 | 16 | 109 | 9.7 | 17.7 | 0.00 | 0.00 | 0.00 | 79 | 1048.7 |
| 20260503150931 | 17 | 118 | 6.4 | 11.3 | 0.00 | 0.00 | 0.00 | 74 | 1048.7 |
| 20260503150832 | 17 | 118 | 4.8 | 12.9 | 0.00 | 0.00 | 0.00 | 74 | 1048.7 |
| 20260503150805 | 17 | 126 | 4.8 | 12.9 | 0.00 | 0.00 | 0.00 | 74 | 1048.7 |
| 20260503150755 | 17 | 127 | 6.4 | 12.9 | 0.00 | 0.00 | 0.00 | 74 | 1048.7 |
| 20260503150735 | 17 | 126 | 6.4 | 12.9 | 0.00 | 0.00 | 0.00 | 74 | 1048.6 |
| 20260503150722 | 17 | 126 | 6.4 | 12.9 | 0.00 | 0.00 | 0.00 | 73 | 1048.7 |
| 20260503150713 | 17 | 125 | 6.4 | 12.9 | 0.00 | 0.00 | 0.00 | 73 | 1048.7 |
| 20260503150451 | 17 | 129 | 6.4 | 12.9 | 0.00 | 0.00 | 0.00 | 73 | 1048.6 |
| 20260503150437 | 17 | 133 | 6.4 | 14.5 | 0.00 | 0.00 | 0.00 | 73 | 1048.7 |
| 20260503150212 | 17 | 141 | 6.4 | 14.5 | 0.00 | 0.00 | 0.00 | 73 | 1048.6 |